Wetterdaten: Montag, 17.03.2014
Datum Zeit Temp. Aussen +5cm Feuchte Auss Luftdruck Regen Sonnenschein Regendauer UV Solar Windben
17.03.2014 00:00 7,8 C 5,6 C 84 % 1019,4 hPa 0,0 l/m 0 min 0 min 0,0 UV-I 0 W/m 0,0 km/h (0 Bft)
17.03.2014 00:02 7,8 C 5,6 C 84 % 1019,4 hPa 0,0 l/m 0 min 0 min 0,0 UV-I 0 W/m 0,0 km/h (0 Bft)
17.03.2014 00:06 7,8 C 5,6 C 84 % 1019,4 hPa 0,0 l/m 0 min 0 min 0,0 UV-I 0 W/m 0,0 km/h (0 Bft)
17.03.2014 00:08 7,8 C 6,1 C 84 % 1019,3 hPa 0,0 l/m 0 min 0 min 0,0 UV-I 0 W/m 0,0 km/h (0 Bft)
17.03.2014 00:10 7,8 C 5,6 C 84 % 1019,4 hPa 0,0 l/m 0 min 0 min 0,0 UV-I 0 W/m 0,0 km/h (0 Bft)
17.03.2014 00:12 7,8 C 5,6 C 84 % 1019,4 hPa 0,0 l/m 0 min 0 min 0,0 UV-I 0 W/m 0,0 km/h (0 Bft)
17.03.2014 00:14 7,8 C 5,6 C 84 % 1019,3 hPa 0,0 l/m 0 min 0 min 0,0 UV-I 0 W/m 0,0 km/h (0 Bft)
17.03.2014 00:16 7,8 C 5,6 C 84 % 1019,3 hPa 0,0 l/m 0 min 0 min 0,0 UV-I 0 W/m 0,0 km/h (0 Bft)
17.03.2014 00:18 7,8 C 5,6 C 84 % 1019,3 hPa 0,0 l/m 0 min 0 min 0,0 UV-I 0 W/m 2,6 km/h (1 Bft)
17.03.2014 00:20 7,8 C 5,6 C 84 % 1019,3 hPa 0,0 l/m 0 min 0 min 0,0 UV-I 0 W/m 0,0 km/h (0 Bft)
17.03.2014 00:22 7,8 C 6,1 C 84 % 1019,3 hPa 0,0 l/m 0 min 0 min 0,0 UV-I 0 W/m 0,0 km/h (0 Bft)
17.03.2014 00:24 7,8 C 6,1 C 84 % 1019,3 hPa 0,0 l/m 0 min 0 min 0,0 UV-I 0 W/m 0,0 km/h (0 Bft)
17.03.2014 00:26 7,9 C 6,1 C 84 % 1019,3 hPa 0,0 l/m 0 min 0 min 0,0 UV-I 0 W/m 0,0 km/h (0 Bft)
17.03.2014 00:28 7,9 C 6,1 C 84 % 1019,3 hPa 0,0 l/m 0 min 0 min 0,0 UV-I 0 W/m 2,6 km/h (1 Bft)
17.03.2014 00:30 8,0 C 6,1 C 84 % 1019,2 hPa 0,0 l/m 0 min 0 min 0,0 UV-I 0 W/m 0,0 km/h (0 Bft)
17.03.2014 00:32 8,0 C 6,7 C 84 % 1019,2 hPa 0,0 l/m 0 min 0 min 0,0 UV-I 0 W/m 5,1 km/h (1 Bft)
17.03.2014 00:34 8,1 C 6,7 C 83 % 1019,1 hPa 0,0 l/m 0 min 0 min 0,0 UV-I 0 W/m 18,0 km/h (3 Bft)
17.03.2014 00:36 8,1 C 6,7 C 83 % 1019,0 hPa 0,0 l/m 0 min 0 min 0,0 UV-I 0 W/m 2,6 km/h (1 Bft)
17.03.2014 00:38 8,1 C 6,7 C 83 % 1019,1 hPa 0,0 l/m 0 min 0 min 0,0 UV-I 0 W/m 0,0 km/h (0 Bft)
17.03.2014 00:40 8,1 C 6,7 C 83 % 1019,1 hPa 0,0 l/m 0 min 0 min 0,0 UV-I 0 W/m 7,7 km/h (2 Bft)
17.03.2014 00:42 8,2 C 6,7 C 83 % 1019,1 hPa 0,0 l/m 0 min 0 min 0,0 UV-I 0 W/m 5,1 km/h (1 Bft)
17.03.2014 00:44 8,2 C 6,7 C 83 % 1019,1 hPa 0,0 l/m 0 min 0 min 0,0 UV-I 0 W/m 7,7 km/h (2 Bft)
17.03.2014 00:46 8,2 C 6,7 C 83 % 1019,1 hPa 0,0 l/m 0 min 0 min 0,0 UV-I 0 W/m 12,9 km/h (3 Bft)
17.03.2014 00:48 8,3 C 6,7 C 83 % 1019,1 hPa 0,0 l/m 0 min 0 min 0,0 UV-I 0 W/m 2,6 km/h (1 Bft)
17.03.2014 00:50 8,3 C 6,7 C 83 % 1019,1 hPa 0,0 l/m 0 min 0 min 0,0 UV-I 0 W/m 0,0 km/h (0 Bft)
17.03.2014 00:52 8,3 C 6,7 C 83 % 1019,0 hPa 0,0 l/m 0 min 0 min 0,0 UV-I 0 W/m 7,7 km/h (2 Bft)
17.03.2014 00:54 8,3 C 6,7 C 83 % 1019,1 hPa 0,0 l/m 0 min 0 min 0,0 UV-I 0 W/m 7,7 km/h (2 Bft)
17.03.2014 00:56 8,3 C 6,7 C 83 % 1019,0 hPa 0,0 l/m 0 min 0 min 0,0 UV-I 0 W/m 7,7 km/h (2 Bft)
17.03.2014 00:58 8,3 C 6,7 C 83 % 1019,0 hPa 0,0 l/m 0 min 0 min 0,0 UV-I 0 W/m 12,9 km/h (3 Bft)
17.03.2014 01:00 8,4 C 6,7 C 83 % 1019,0 hPa 0,0 l/m 0 min 0 min 0,0 UV-I 0 W/m 0,0 km/h (0 Bft)
17.03.2014 01:03 8,4 C 6,7 C 83 % 1019,0 hPa 0,0 l/m 0 min 0 min 0,0 UV-I 0 W/m 12,9 km/h (3 Bft)
17.03.2014 01:04 8,4 C 6,7 C 83 % 1019,0 hPa 0,0 l/m 0 min 0 min 0,0 UV-I 0 W/m 7,7 km/h (2 Bft)
17.03.2014 01:06 8,4 C 6,7 C 83 % 1019,1 hPa 0,0 l/m 0 min 0 min 0,0 UV-I 0 W/m 2,6 km/h (1 Bft)
17.03.2014 01:08 8,4 C 6,7 C 84 % 1019,2 hPa 0,0 l/m 0 min 0 min 0,0 UV-I 0 W/m 0,0 km/h (0 Bft)
17.03.2014 01:10 8,4 C 6,7 C 84 % 1019,2 hPa 0,0 l/m 0 min 0 min 0,0 UV-I 0 W/m 5,1 km/h (1 Bft)
17.03.2014 01:12 8,4 C 6,7 C 84 % 1019,2 hPa 0,0 l/m 0 min 0 min 0,0 UV-I 0 W/m 2,6 km/h (1 Bft)
17.03.2014 01:14 8,4 C 6,7 C 84 % 1019,2 hPa 0,0 l/m 0 min 0 min 0,0 UV-I 0 W/m 0,0 km/h (0 Bft)
17.03.2014 01:16 8,4 C 6,7 C 84 % 1019,2 hPa 0,0 l/m 0 min 0 min 0,0 UV-I 0 W/m 0,0 km/h (0 Bft)
17.03.2014 01:18 8,3 C 6,7 C 84 % 1019,2 hPa 0,0 l/m 0 min 0 min 0,0 UV-I 0 W/m 2,6 km/h (1 Bft)
17.03.2014 01:20 8,3 C 6,7 C 84 % 1019,2 hPa 0,0 l/m 0 min 0 min 0,0 UV-I 0 W/m 0,0 km/h (0 Bft)
17.03.2014 01:22 8,2 C 6,7 C 84 % 1019,2 hPa 0,0 l/m 0 min 0 min 0,0 UV-I 0 W/m 0,0 km/h (0 Bft)
17.03.2014 01:24 8,2 C 6,7 C 84 % 1019,2 hPa 0,0 l/m 0 min 0 min 0,0 UV-I 0 W/m 0,0 km/h (0 Bft)
17.03.2014 01:26 8,2 C 6,7 C 85 % 1019,2 hPa 0,0 l/m 0 min 0 min 0,0 UV-I 0 W/m 5,1 km/h (1 Bft)
17.03.2014 01:28 8,2 C 6,7 C 85 % 1019,2 hPa 0,0 l/m 0 min 0 min 0,0 UV-I 0 W/m 10,3 km/h (2 Bft)
17.03.2014 01:30 8,3 C 6,7 C 85 % 1019,2 hPa 0,0 l/m 0 min 0 min 0,0 UV-I 0 W/m 5,1 km/h (1 Bft)
17.03.2014 01:32 8,3 C 6,7 C 85 % 1019,2 hPa 0,0 l/m 0 min 0 min 0,0 UV-I 0 W/m 5,1 km/h (1 Bft)
17.03.2014 01:34 8,2 C 6,7 C 85 % 1019,2 hPa 0,0 l/m 0 min 0 min 0,0 UV-I 0 W/m 0,0 km/h (0 Bft)
17.03.2014 01:36 8,2 C 6,7 C 85 % 1019,2 hPa 0,0 l/m 0 min 0 min 0,0 UV-I 0 W/m 2,6 km/h (1 Bft)
17.03.2014 01:38 8,2 C 6,7 C 85 % 1019,2 hPa 0,0 l/m 0 min 0 min 0,0 UV-I 0 W/m 0,0 km/h (0 Bft)
17.03.2014 01:40 8,2 C 6,7 C 85 % 1019,2 hPa 0,0 l/m 0 min 0 min 0,0 UV-I 0 W/m 0,0 km/h (0 Bft)
17.03.2014 01:42 8,2 C 6,7 C 85 % 1019,2 hPa 0,0 l/m 0 min 0 min 0,0 UV-I 0 W/m 2,6 km/h (1 Bft)
17.03.2014 01:44 8,2 C 6,7 C 85 % 1019,3 hPa 0,0 l/m 0 min 0 min 0,0 UV-I 0 W/m 0,0 km/h (0 Bft)
17.03.2014 01:46 8,1 C 6,1 C 85 % 1019,3 hPa 0,0 l/m 0 min 0 min 0,0 UV-I 0 W/m 0,0 km/h (0 Bft)
17.03.2014 01:48 8,0 C 6,1 C 85 % 1019,3 hPa 0,0 l/m 0 min 0 min 0,0 UV-I 0 W/m 0,0 km/h (0 Bft)
17.03.2014 01:50 8,0 C 6,1 C 85 % 1019,3 hPa 0,0 l/m 0 min 0 min 0,0 UV-I 0 W/m 2,6 km/h (1 Bft)
17.03.2014 01:52 7,9 C 6,1 C 86 % 1019,3 hPa 0,0 l/m 0 min 0 min 0,0 UV-I 0 W/m 0,0 km/h (0 Bft)
17.03.2014 01:54 7,9 C 6,1 C 86 % 1019,3 hPa 0,0 l/m 0 min 0 min 0,0 UV-I 0 W/m 0,0 km/h (0 Bft)
17.03.2014 01:56 7,9 C 6,1 C 86 % 1019,4 hPa 0,0 l/m 0 min 0 min 0,0 UV-I 0 W/m 2,6 km/h (1 Bft)
17.03.2014 01:58 7,9 C 6,1 C 86 % 1019,3 hPa 0,0 l/m 0 min 0 min 0,0 UV-I 0 W/m 0,0 km/h (0 Bft)
17.03.2014 02:00 7,8 C 6,1 C 86 % 1019,3 hPa 0,0 l/m 0 min 0 min 0,0 UV-I 0 W/m 0,0 km/h (0 Bft)
17.03.2014 02:02 7,8 C 6,1 C 86 % 1019,3 hPa 0,0 l/m 0 min 0 min 0,0 UV-I 0 W/m 0,0 km/h (0 Bft)
17.03.2014 02:06 7,7 C 6,1 C 86 % 1019,2 hPa 0,0 l/m 0 min 0 min 0,0 UV-I 0 W/m 2,6 km/h (1 Bft)
17.03.2014 02:08 7,7 C 6,1 C 87 % 1019,3 hPa 0,0 l/m 0 min 0 min 0,0 UV-I 0 W/m 0,0 km/h (0 Bft)
17.03.2014 02:10 7,7 C 5,6 C 87 % 1019,3 hPa 0,0 l/m 0 min 0 min 0,0 UV-I 0 W/m 0,0 km/h (0 Bft)
17.03.2014 02:12 7,7 C 6,1 C 87 % 1019,3 hPa 0,0 l/m 0 min 0 min 0,0 UV-I 0 W/m 0,0 km/h (0 Bft)
17.03.2014 02:14 7,7 C 6,1 C 87 % 1019,3 hPa 0,0 l/m 0 min 0 min 0,0 UV-I 0 W/m 0,0 km/h (0 Bft)
17.03.2014 02:16 7,7 C 6,1 C 87 % 1019,3 hPa 0,0 l/m 0 min 0 min 0,0 UV-I 0 W/m 0,0 km/h (0 Bft)
17.03.2014 02:18 7,7 C 6,1 C 87 % 1019,3 hPa 0,0 l/m 0 min 0 min 0,0 UV-I 0 W/m 0,0 km/h (0 Bft)
17.03.2014 02:20 7,7 C 5,6 C 87 % 1019,2 hPa 0,0 l/m 0 min 0 min 0,0 UV-I 0 W/m 0,0 km/h (0 Bft)
17.03.2014 02:22 7,6 C 5,6 C 87 % 1019,2 hPa 0,0 l/m 0 min 0 min 0,0 UV-I 0 W/m 0,0 km/h (0 Bft)
17.03.2014 02:24 7,6 C 5,6 C 87 % 1019,2 hPa 0,0 l/m 0 min 0 min 0,0 UV-I 0 W/m 0,0 km/h (0 Bft)
17.03.2014 02:26 7,6 C 5,6 C 87 % 1019,3 hPa 0,0 l/m 0 min 0 min 0,0 UV-I 0 W/m 0,0 km/h (0 Bft)
17.03.2014 02:28 7,6 C 5,6 C 87 % 1019,4 hPa 0,0 l/m 0 min 0 min 0,0 UV-I 0 W/m 0,0 km/h (0 Bft)
17.03.2014 02:30 7,6 C 5,6 C 88 % 1019,4 hPa 0,0 l/m 0 min 0 min 0,0 UV-I 0 W/m 0,0 km/h (0 Bft)
17.03.2014 02:32 7,6 C 5,6 C 88 % 1019,3 hPa 0,0 l/m 0 min 0 min 0,0 UV-I 0 W/m 2,6 km/h (1 Bft)
17.03.2014 02:34 7,5 C 5,6 C 88 % 1019,3 hPa 0,0 l/m 0 min 0 min 0,0 UV-I 0 W/m 7,7 km/h (2 Bft)
17.03.2014 02:36 7,4 C 5,6 C 88 % 1019,2 hPa 0,0 l/m 0 min 0 min 0,0 UV-I 0 W/m 0,0 km/h (0 Bft)
17.03.2014 02:38 7,4 C 5,6 C 88 % 1019,1 hPa 0,0 l/m 0 min 0 min 0,0 UV-I 0 W/m 0,0 km/h (0 Bft)
17.03.2014 02:40 7,4 C 5,6 C 88 % 1019,2 hPa 0,0 l/m 0 min 0 min 0,0 UV-I 0 W/m 0,0 km/h (0 Bft)
17.03.2014 02:42 7,4 C 5,6 C 88 % 1019,2 hPa 0,0 l/m 0 min 0 min 0,0 UV-I 0 W/m 0,0 km/h (0 Bft)
17.03.2014 02:44 7,4 C 5,6 C 88 % 1019,3 hPa 0,0 l/m 0 min 0 min 0,0 UV-I 0 W/m 0,0 km/h (0 Bft)
17.03.2014 02:46 7,3 C 5,6 C 88 % 1019,3 hPa 0,0 l/m 0 min 0 min 0,0 UV-I 0 W/m 0,0 km/h (0 Bft)
17.03.2014 02:48 7,3 C 5,6 C 88 % 1019,3 hPa 0,0 l/m 0 min 0 min 0,0 UV-I 0 W/m 0,0 km/h (0 Bft)
17.03.2014 02:50 7,4 C 6,1 C 89 % 1019,2 hPa 0,0 l/m 0 min 0 min 0,0 UV-I 0 W/m 2,6 km/h (1 Bft)
17.03.2014 02:52 7,4 C 6,1 C 89 % 1019,2 hPa 0,0 l/m 0 min 0 min 0,0 UV-I 0 W/m 0,0 km/h (0 Bft)
17.03.2014 02:54 7,5 C 6,1 C 89 % 1019,2 hPa 0,0 l/m 0 min 0 min 0,0 UV-I 0 W/m 0,0 km/h (0 Bft)
17.03.2014 02:56 7,5 C 6,1 C 89 % 1019,2 hPa 0,0 l/m 0 min 0 min 0,0 UV-I 0 W/m 0,0 km/h (0 Bft)
17.03.2014 02:58 7,6 C 6,1 C 89 % 1019,2 hPa 0,0 l/m 0 min 0 min 0,0 UV-I 0 W/m 0,0 km/h (0 Bft)
17.03.2014 03:00 7,6 C 6,1 C 89 % 1019,1 hPa 0,0 l/m 0 min 0 min 0,0 UV-I 0 W/m 0,0 km/h (0 Bft)
17.03.2014 03:02 7,6 C 6,7 C 89 % 1019,2 hPa 0,0 l/m 0 min 0 min 0,0 UV-I 0 W/m 0,0 km/h (0 Bft)
17.03.2014 03:06 7,7 C 6,7 C 89 % 1019,1 hPa 0,0 l/m 0 min 0 min 0,0 UV-I 0 W/m 5,1 km/h (1 Bft)
17.03.2014 03:08 7,8 C 6,7 C 89 % 1019,1 hPa 0,0 l/m 0 min 0 min 0,0 UV-I 0 W/m 5,1 km/h (1 Bft)
17.03.2014 03:10 7,8 C 6,7 C 89 % 1019,2 hPa 0,0 l/m 0 min 0 min 0,0 UV-I 0 W/m 0,0 km/h (0 Bft)
17.03.2014 03:12 7,9 C 6,7 C 89 % 1019,1 hPa 0,0 l/m 0 min 0 min 0,0 UV-I 0 W/m 0,0 km/h (0 Bft)
17.03.2014 03:14 7,9 C 6,7 C 89 % 1019,2 hPa 0,0 l/m 0 min 0 min 0,0 UV-I 0 W/m 2,6 km/h (1 Bft)
17.03.2014 03:16 7,9 C 6,7 C 89 % 1019,2 hPa 0,0 l/m 0 min 0 min 0,0 UV-I 0 W/m 5,1 km/h (1 Bft)
17.03.2014 03:18 8,0 C 6,7 C 89 % 1019,1 hPa 0,0 l/m 0 min 0 min 0,0 UV-I 0 W/m 0,0 km/h (0 Bft)
17.03.2014 03:20 8,1 C 6,7 C 89 % 1019,1 hPa 0,0 l/m 0 min 0 min 0,0 UV-I 0 W/m 7,7 km/h (2 Bft)
17.03.2014 03:22 8,1 C 6,7 C 89 % 1019,1 hPa 0,0 l/m 0 min 0 min 0,0 UV-I 0 W/m 0,0 km/h (0 Bft)
17.03.2014 03:24 8,1 C 7,2 C 89 % 1019,0 hPa 0,0 l/m 0 min 0 min 0,0 UV-I 0 W/m 0,0 km/h (0 Bft)
17.03.2014 03:26 8,1 C 6,7 C 88 % 1019,1 hPa 0,0 l/m 0 min 0 min 0,0 UV-I 0 W/m 0,0 km/h (0 Bft)
17.03.2014 03:28 8,1 C 6,7 C 88 % 1019,0 hPa 0,0 l/m 0 min 0 min 0,0 UV-I 0 W/m 0,0 km/h (0 Bft)
17.03.2014 03:30 8,1 C 6,7 C 88 % 1019,0 hPa 0,0 l/m 0 min 0 min 0,0 UV-I 0 W/m 0,0 km/h (0 Bft)
17.03.2014 03:32 8,1 C 6,7 C 89 % 1018,9 hPa 0,0 l/m 0 min 0 min 0,0 UV-I 0 W/m 0,0 km/h (0 Bft)
17.03.2014 03:34 8,1 C 6,7 C 89 % 1018,9 hPa 0,0 l/m 0 min 0 min 0,0 UV-I 0 W/m 0,0 km/h (0 Bft)
17.03.2014 03:36 8,1 C 6,7 C 89 % 1018,9 hPa 0,0 l/m 0 min 0 min 0,0 UV-I 0 W/m 0,0 km/h (0 Bft)
17.03.2014 03:38 8,1 C 6,7 C 89 % 1018,8 hPa 0,0 l/m 0 min 0 min 0,0 UV-I 0 W/m 0,0 km/h (0 Bft)
17.03.2014 03:40 8,1 C 6,7 C 89 % 1018,8 hPa 0,0 l/m 0 min 0 min 0,0 UV-I 0 W/m 5,1 km/h (1 Bft)
17.03.2014 03:42 8,1 C 6,7 C 89 % 1018,8 hPa 0,0 l/m 0 min 0 min 0,0 UV-I 0 W/m 0,0 km/h (0 Bft)
17.03.2014 03:44 8,1 C 6,7 C 89 % 1018,8 hPa 0,0 l/m 0 min 0 min 0,0 UV-I 0 W/m 0,0 km/h (0 Bft)
17.03.2014 03:46 8,1 C 6,7 C 89 % 1018,8 hPa 0,0 l/m 0 min 0 min 0,0 UV-I 0 W/m 2,6 km/h (1 Bft)
17.03.2014 03:48 8,1 C 7,2 C 89 % 1018,7 hPa 0,0 l/m 0 min 0 min 0,0 UV-I 0 W/m 7,7 km/h (2 Bft)
17.03.2014 03:50 8,1 C 7,2 C 89 % 1018,6 hPa 0,0 l/m 0 min 0 min 0,0 UV-I 0 W/m 0,0 km/h (0 Bft)
17.03.2014 03:52 8,1 C 7,2 C 89 % 1018,6 hPa 0,0 l/m 0 min 0 min 0,0 UV-I 0 W/m 0,0 km/h (0 Bft)
17.03.2014 03:54 8,1 C 6,7 C 89 % 1018,6 hPa 0,0 l/m 0 min 0 min 0,0 UV-I 0 W/m 0,0 km/h (0 Bft)
17.03.2014 03:56 8,1 C 6,7 C 89 % 1018,5 hPa 0,0 l/m 0 min 0 min 0,0 UV-I 0 W/m 0,0 km/h (0 Bft)
17.03.2014 03:58 8,1 C 6,7 C 89 % 1018,6 hPa 0,0 l/m 0 min 0 min 0,0 UV-I 0 W/m 0,0 km/h (0 Bft)
17.03.2014 04:00 8,1 C 6,7 C 89 % 1018,7 hPa 0,0 l/m 0 min 0 min 0,0 UV-I 0 W/m 2,6 km/h (1 Bft)
17.03.2014 04:06 8,2 C 6,7 C 89 % 1018,8 hPa 0,0 l/m 0 min 0 min 0,0 UV-I 0 W/m 5,1 km/h (1 Bft)
17.03.2014 04:07 8,2 C 7,2 C 89 % 1018,7 hPa 0,0 l/m 0 min 0 min 0,0 UV-I 0 W/m 5,1 km/h (1 Bft)
17.03.2014 04:10 8,2 C 7,2 C 89 % 1018,9 hPa 0,0 l/m 0 min 0 min 0,0 UV-I 0 W/m 2,6 km/h (1 Bft)
17.03.2014 04:12 8,3 C 7,2 C 89 % 1018,9 hPa 0,0 l/m 0 min 0 min 0,0 UV-I 0 W/m 2,6 km/h (1 Bft)
17.03.2014 04:14 8,3 C 7,2 C 89 % 1018,9 hPa 0,0 l/m 0 min 0 min 0,0 UV-I 0 W/m 0,0 km/h (0 Bft)
17.03.2014 04:16 8,3 C 7,2 C 89 % 1018,9 hPa 0,0 l/m 0 min 0 min 0,0 UV-I 0 W/m 0,0 km/h (0 Bft)
17.03.2014 04:18 8,3 C 7,2 C 89 % 1018,9 hPa 0,0 l/m 0 min 0 min 0,0 UV-I 0 W/m 7,7 km/h (2 Bft)
17.03.2014 04:20 8,4 C 7,2 C 89 % 1018,8 hPa 0,0 l/m 0 min 0 min 0,0 UV-I 0 W/m 10,3 km/h (2 Bft)
17.03.2014 04:22 8,4 C 7,2 C 89 % 1018,8 hPa 0,0 l/m 0 min 0 min 0,0 UV-I 0 W/m 2,6 km/h (1 Bft)
17.03.2014 04:24 8,4 C 7,2 C 89 % 1018,8 hPa 0,0 l/m 0 min 0 min 0,0 UV-I 0 W/m 0,0 km/h (0 Bft)
17.03.2014 04:26 8,4 C 7,2 C 89 % 1018,8 hPa 0,0 l/m 0 min 0 min 0,0 UV-I 0 W/m 2,6 km/h (1 Bft)
17.03.2014 04:28 8,4 C 7,2 C 89 % 1018,8 hPa 0,0 l/m 0 min 0 min 0,0 UV-I 0 W/m 7,7 km/h (2 Bft)
17.03.2014 04:30 8,4 C 7,2 C 89 % 1018,9 hPa 0,0 l/m 0 min 0 min 0,0 UV-I 0 W/m 0,0 km/h (0 Bft)
17.03.2014 04:32 8,4 C 7,2 C 89 % 1018,9 hPa 0,0 l/m 0 min 0 min 0,0 UV-I 0 W/m 2,6 km/h (1 Bft)
17.03.2014 04:34 8,4 C 7,2 C 89 % 1018,8 hPa 0,0 l/m 0 min 0 min 0,0 UV-I 0 W/m 0,0 km/h (0 Bft)
17.03.2014 04:36 8,4 C 7,2 C 89 % 1018,8 hPa 0,0 l/m 0 min 0 min 0,0 UV-I 0 W/m 7,7 km/h (2 Bft)
17.03.2014 04:38 8,4 C 7,2 C 89 % 1018,7 hPa 0,0 l/m 0 min 0 min 0,0 UV-I 0 W/m 0,0 km/h (0 Bft)
17.03.2014 04:40 8,5 C 7,2 C 89 % 1018,8 hPa 0,0 l/m 0 min 0 min 0,0 UV-I 0 W/m 5,1 km/h (1 Bft)
17.03.2014 04:42 8,5 C 7,2 C 89 % 1018,8 hPa 0,0 l/m 0 min 0 min 0,0 UV-I 0 W/m 2,6 km/h (1 Bft)
17.03.2014 04:44 8,5 C 7,2 C 89 % 1018,7 hPa 0,0 l/m 0 min 0 min 0,0 UV-I 0 W/m 0,0 km/h (0 Bft)
17.03.2014 04:46 8,4 C 7,2 C 89 % 1018,7 hPa 0,0 l/m 0 min 0 min 0,0 UV-I 0 W/m 0,0 km/h (0 Bft)
17.03.2014 04:48 8,4 C 7,2 C 89 % 1018,8 hPa 0,0 l/m 0 min 0 min 0,0 UV-I 0 W/m 5,1 km/h (1 Bft)
17.03.2014 04:50 8,4 C 7,2 C 89 % 1018,8 hPa 0,0 l/m 0 min 0 min 0,0 UV-I 0 W/m 5,1 km/h (1 Bft)
17.03.2014 04:52 8,4 C 7,2 C 89 % 1018,8 hPa 0,0 l/m 0 min 0 min 0,0 UV-I 0 W/m 5,1 km/h (1 Bft)
17.03.2014 04:54 8,4 C 7,2 C 89 % 1018,8 hPa 0,0 l/m 0 min 0 min 0,0 UV-I 0 W/m 10,3 km/h (2 Bft)
17.03.2014 04:56 8,4 C 7,2 C 89 % 1018,7 hPa 0,0 l/m 0 min 0 min 0,0 UV-I 0 W/m 7,7 km/h (2 Bft)
17.03.2014 04:58 8,4 C 7,2 C 89 % 1018,7 hPa 0,0 l/m 0 min 0 min 0,0 UV-I 0 W/m 2,6 km/h (1 Bft)
17.03.2014 05:00 8,4 C 7,2 C 89 % 1018,7 hPa 0,0 l/m 0 min 0 min 0,0 UV-I 0 W/m 0,0 km/h (0 Bft)
17.03.2014 05:02 8,4 C 7,2 C 89 % 1018,7 hPa 0,0 l/m 0 min 0 min 0,0 UV-I 0 W/m 2,6 km/h (1 Bft)
17.03.2014 05:06 8,4 C 7,2 C 89 % 1018,8 hPa 0,0 l/m 0 min 0 min 0,0 UV-I 0 W/m 15,4 km/h (3 Bft)
17.03.2014 05:08 8,5 C 7,2 C 89 % 1018,8 hPa 0,0 l/m 0 min 0 min 0,0 UV-I 0 W/m 2,6 km/h (1 Bft)
17.03.2014 05:10 8,5 C 7,2 C 89 % 1018,8 hPa 0,0 l/m 0 min 0 min 0,0 UV-I 0 W/m 10,3 km/h (2 Bft)
17.03.2014 05:12 8,5 C 7,2 C 89 % 1018,9 hPa 0,0 l/m 0 min 0 min 0,0 UV-I 0 W/m 7,7 km/h (2 Bft)
17.03.2014 05:14 8,5 C 7,2 C 89 % 1018,9 hPa 0,0 l/m 0 min 0 min 0,0 UV-I 0 W/m 5,1 km/h (1 Bft)
17.03.2014 05:16 8,5 C 7,2 C 89 % 1018,8 hPa 0,0 l/m 0 min 0 min 0,0 UV-I 0 W/m 7,7 km/h (2 Bft)
17.03.2014 05:18 8,6 C 7,2 C 89 % 1018,9 hPa 0,0 l/m 0 min 0 min 0,0 UV-I 0 W/m 7,7 km/h (2 Bft)
17.03.2014 05:20 8,6 C 7,2 C 89 % 1018,9 hPa 0,0 l/m 0 min 0 min 0,0 UV-I 0 W/m 10,3 km/h (2 Bft)
17.03.2014 05:22 8,6 C 7,2 C 90 % 1018,9 hPa 0,0 l/m 0 min 0 min 0,0 UV-I 0 W/m 7,7 km/h (2 Bft)
17.03.2014 05:24 8,6 C 7,2 C 90 % 1018,9 hPa 0,0 l/m 0 min 0 min 0,0 UV-I 0 W/m 10,3 km/h (2 Bft)
17.03.2014 05:26 8,6 C 7,2 C 90 % 1018,8 hPa 0,0 l/m 0 min 0 min 0,0 UV-I 0 W/m 7,7 km/h (2 Bft)
17.03.2014 05:28 8,6 C 7,2 C 90 % 1018,8 hPa 0,0 l/m 0 min 0 min 0,0 UV-I 0 W/m 5,1 km/h (1 Bft)
17.03.2014 05:30 8,6 C 7,2 C 90 % 1018,9 hPa 0,0 l/m 0 min 0 min 0,0 UV-I 0 W/m 2,6 km/h (1 Bft)
17.03.2014 05:32 8,6 C 7,2 C 90 % 1018,9 hPa 0,0 l/m 0 min 0 min 0,0 UV-I 0 W/m 12,9 km/h (3 Bft)
17.03.2014 05:34 8,6 C 7,2 C 90 % 1019,0 hPa 0,0 l/m 0 min 0 min 0,0 UV-I 0 W/m 5,1 km/h (1 Bft)
17.03.2014 05:36 8,6 C 7,2 C 90 % 1019,0 hPa 0,0 l/m 0 min 0 min 0,0 UV-I 0 W/m 5,1 km/h (1 Bft)
17.03.2014 05:38 8,6 C 7,2 C 90 % 1019,0 hPa 0,0 l/m 0 min 0 min 0,0 UV-I 0 W/m 5,1 km/h (1 Bft)
17.03.2014 05:40 8,6 C 7,2 C 90 % 1019,0 hPa 0,0 l/m 0 min 0 min 0,0 UV-I 0 W/m 5,1 km/h (1 Bft)
17.03.2014 05:42 8,6 C 7,2 C 90 % 1019,0 hPa 0,0 l/m 0 min 0 min 0,0 UV-I 0 W/m 7,7 km/h (2 Bft)
17.03.2014 05:44 8,7 C 7,2 C 90 % 1019,0 hPa 0,0 l/m 0 min 0 min 0,0 UV-I 0 W/m 2,6 km/h (1 Bft)
17.03.2014 05:46 8,7 C 7,2 C 90 % 1019,1 hPa 0,0 l/m 0 min 0 min 0,0 UV-I 0 W/m 10,3 km/h (2 Bft)
17.03.2014 05:48 8,7 C 7,2 C 90 % 1019,1 hPa 0,0 l/m 0 min 0 min 0,0 UV-I 0 W/m 15,4 km/h (3 Bft)
17.03.2014 05:50 8,7 C 7,8 C 90 % 1019,1 hPa 0,0 l/m 0 min 0 min 0,0 UV-I 0 W/m 7,7 km/h (2 Bft)
17.03.2014 05:52 8,7 C 7,2 C 90 % 1019,1 hPa 0,0 l/m 0 min 0 min 0,0 UV-I 0 W/m 12,9 km/h (3 Bft)
17.03.2014 05:54 8,7 C 7,8 C 90 % 1019,0 hPa 0,0 l/m 0 min 0 min 0,0 UV-I 0 W/m 10,3 km/h (2 Bft)
17.03.2014 05:56 8,7 C 7,8 C 90 % 1019,1 hPa 0,0 l/m 0 min 0 min 0,0 UV-I 0 W/m 5,1 km/h (1 Bft)
17.03.2014 05:58 8,7 C 7,8 C 90 % 1019,1 hPa 0,0 l/m 0 min 0 min 0,0 UV-I 0 W/m 12,9 km/h (3 Bft)
17.03.2014 06:00 8,7 C 7,8 C 90 % 1019,1 hPa 0,0 l/m 0 min 0 min 0,0 UV-I 0 W/m 0,0 km/h (0 Bft)
17.03.2014 06:02 8,7 C 7,8 C 90 % 1019,1 hPa 0,0 l/m 0 min 0 min 0,0 UV-I 0 W/m 10,3 km/h (2 Bft)
17.03.2014 06:06 8,7 C 7,8 C 90 % 1019,1 hPa 0,0 l/m 0 min 0 min 0,0 UV-I 0 W/m 5,1 km/h (1 Bft)
17.03.2014 06:08 8,7 C 7,8 C 90 % 1019,1 hPa 0,0 l/m 0 min 0 min 0,0 UV-I 0 W/m 7,7 km/h (2 Bft)
17.03.2014 06:10 8,7 C 7,8 C 90 % 1019,1 hPa 0,0 l/m 0 min 0 min 0,0 UV-I 0 W/m 12,9 km/h (3 Bft)
17.03.2014 06:12 8,7 C 7,8 C 90 % 1019,0 hPa 0,0 l/m 0 min 0 min 0,0 UV-I 0 W/m 5,1 km/h (1 Bft)
17.03.2014 06:14 8,7 C 7,8 C 90 % 1019,0 hPa 0,0 l/m 0 min 0 min 0,0 UV-I 0 W/m 7,7 km/h (2 Bft)
17.03.2014 06:16 8,7 C 7,8 C 90 % 1019,0 hPa 0,0 l/m 0 min 0 min 0,0 UV-I 0 W/m 10,3 km/h (2 Bft)
17.03.2014 06:18 8,7 C 7,8 C 90 % 1019,0 hPa 0,0 l/m 0 min 0 min 0,0 UV-I 0 W/m 2,6 km/h (1 Bft)
17.03.2014 06:20 8,8 C 7,8 C 90 % 1019,0 hPa 0,0 l/m 0 min 0 min 0,0 UV-I 0 W/m 0,0 km/h (0 Bft)
17.03.2014 06:22 8,7 C 7,8 C 90 % 1019,0 hPa 0,0 l/m 0 min 0 min 0,0 UV-I 0 W/m 12,9 km/h (3 Bft)
17.03.2014 06:24 8,7 C 7,8 C 90 % 1019,0 hPa 0,0 l/m 0 min 0 min 0,0 UV-I 0 W/m 2,6 km/h (1 Bft)
17.03.2014 06:26 8,8 C 7,8 C 90 % 1019,1 hPa 0,0 l/m 0 min 0 min 0,0 UV-I 0 W/m 7,7 km/h (2 Bft)
17.03.2014 06:28 8,8 C 7,8 C 90 % 1019,1 hPa 0,0 l/m 0 min 0 min 0,0 UV-I 0 W/m 10,3 km/h (2 Bft)
17.03.2014 06:30 8,8 C 7,8 C 90 % 1019,1 hPa 0,0 l/m 0 min 0 min 0,0 UV-I 0 W/m 7,7 km/h (2 Bft)
17.03.2014 06:32 8,8 C 7,8 C 91 % 1019,1 hPa 0,0 l/m 0 min 0 min 0,0 UV-I 0 W/m 10,3 km/h (2 Bft)
17.03.2014 06:34 8,8 C 7,8 C 91 % 1019,1 hPa 0,0 l/m 0 min 0 min 0,0 UV-I 0 W/m 0,0 km/h (0 Bft)
17.03.2014 06:36 8,8 C 7,8 C 90 % 1019,1 hPa 0,0 l/m 0 min 0 min 0,0 UV-I 0 W/m 0,0 km/h (0 Bft)
17.03.2014 06:38 8,8 C 7,8 C 91 % 1019,1 hPa 0,0 l/m 0 min 0 min 0,0 UV-I 0 W/m 0,0 km/h (0 Bft)
17.03.2014 06:40 8,8 C 7,8 C 91 % 1019,1 hPa 0,0 l/m 0 min 0 min 0,0 UV-I 0 W/m 7,7 km/h (2 Bft)
17.03.2014 06:42 8,8 C 7,8 C 91 % 1019,1 hPa 0,0 l/m 0 min 0 min 0,0 UV-I 0 W/m 5,1 km/h (1 Bft)
17.03.2014 06:44 8,8 C 7,8 C 91 % 1019,1 hPa 0,0 l/m 0 min 0 min 0,0 UV-I 0 W/m 10,3 km/h (2 Bft)
17.03.2014 06:46 8,8 C 7,8 C 91 % 1019,1 hPa 0,0 l/m 0 min 0 min 0,0 UV-I 0 W/m 10,3 km/h (2 Bft)
17.03.2014 06:48 8,8 C 7,8 C 91 % 1019,1 hPa 0,0 l/m 0 min 0 min 0,0 UV-I 0 W/m 7,7 km/h (2 Bft)
17.03.2014 06:50 8,8 C 7,8 C 91 % 1019,1 hPa 0,0 l/m 0 min 0 min 0,0 UV-I 0 W/m 10,3 km/h (2 Bft)
17.03.2014 06:52 8,8 C 7,8 C 91 % 1019,1 hPa 0,0 l/m 0 min 0 min 0,0 UV-I 5 W/m 5,1 km/h (1 Bft)
17.03.2014 06:54 8,8 C 7,8 C 91 % 1019,1 hPa 0,0 l/m 0 min 0 min 0,0 UV-I 0 W/m 10,3 km/h (2 Bft)
17.03.2014 06:56 8,8 C 7,8 C 91 % 1019,1 hPa 0,0 l/m 0 min 0 min 0,0 UV-I 5 W/m 2,6 km/h (1 Bft)
17.03.2014 06:58 8,8 C 7,8 C 91 % 1019,1 hPa 0,0 l/m 0 min 0 min 0,0 UV-I 5 W/m 10,3 km/h (2 Bft)
17.03.2014 07:00 8,8 C 7,8 C 91 % 1019,2 hPa 0,0 l/m 0 min 0 min 0,0 UV-I 5 W/m 18,0 km/h (3 Bft)
17.03.2014 07:02 8,8 C 7,8 C 91 % 1019,1 hPa 0,0 l/m 0 min 0 min 0,0 UV-I 5 W/m 10,3 km/h (2 Bft)
17.03.2014 07:06 8,8 C 7,8 C 91 % 1019,2 hPa 0,0 l/m 0 min 0 min 0,0 UV-I 7 W/m 15,4 km/h (3 Bft)
17.03.2014 07:08 8,8 C 7,8 C 91 % 1019,3 hPa 0,0 l/m 0 min 0 min 0,0 UV-I 7 W/m 7,7 km/h (2 Bft)
17.03.2014 07:10 8,8 C 7,8 C 91 % 1019,2 hPa 0,0 l/m 0 min 0 min 0,0 UV-I 9 W/m 12,9 km/h (3 Bft)
17.03.2014 07:12 8,8 C 7,8 C 91 % 1019,3 hPa 0,0 l/m 0 min 0 min 0,0 UV-I 11 W/m 10,3 km/h (2 Bft)
17.03.2014 07:14 8,9 C 7,8 C 91 % 1019,3 hPa 0,0 l/m 0 min 0 min 0,0 UV-I 14 W/m 10,3 km/h (2 Bft)
17.03.2014 07:16 8,8 C 7,8 C 91 % 1019,3 hPa 0,0 l/m 0 min 0 min 0,0 UV-I 16 W/m 12,9 km/h (3 Bft)
17.03.2014 07:18 8,9 C 7,8 C 91 % 1019,3 hPa 0,0 l/m 0 min 0 min 0,0 UV-I 16 W/m 5,1 km/h (1 Bft)
17.03.2014 07:20 8,9 C 7,8 C 91 % 1019,3 hPa 0,0 l/m 0 min 0 min 0,0 UV-I 18 W/m 10,3 km/h (2 Bft)
17.03.2014 07:22 8,9 C 7,8 C 91 % 1019,2 hPa 0,0 l/m 0 min 0 min 0,0 UV-I 19 W/m 12,9 km/h (3 Bft)
17.03.2014 07:24 8,9 C 7,8 C 91 % 1019,3 hPa 0,0 l/m 0 min 0 min 0,0 UV-I 19 W/m 10,3 km/h (2 Bft)
17.03.2014 07:26 8,9 C 7,8 C 91 % 1019,3 hPa 0,0 l/m 0 min 0 min 0,0 UV-I 23 W/m 10,3 km/h (2 Bft)
17.03.2014 07:28 8,9 C 7,8 C 91 % 1019,3 hPa 0,0 l/m 0 min 0 min 0,0 UV-I 25 W/m 12,9 km/h (3 Bft)
17.03.2014 07:30 8,9 C 7,8 C 91 % 1019,3 hPa 0,0 l/m 0 min 0 min 0,0 UV-I 25 W/m 7,7 km/h (2 Bft)
17.03.2014 07:32 8,9 C 7,8 C 91 % 1019,4 hPa 0,0 l/m 0 min 0 min 0,0 UV-I 23 W/m 10,3 km/h (2 Bft)
17.03.2014 07:34 8,9 C 7,8 C 91 % 1019,4 hPa 0,0 l/m 0 min 0 min 0,0 UV-I 21 W/m 10,3 km/h (2 Bft)
17.03.2014 07:36 8,9 C 7,8 C 91 % 1019,5 hPa 0,0 l/m 0 min 0 min 0,0 UV-I 21 W/m 18,0 km/h (3 Bft)
17.03.2014 07:38 8,9 C 7,8 C 91 % 1019,5 hPa 0,0 l/m 0 min 0 min 0,0 UV-I 23 W/m 7,7 km/h (2 Bft)
17.03.2014 07:40 8,9 C 7,8 C 91 % 1019,5 hPa 0,0 l/m 0 min 0 min 0,0 UV-I 26 W/m 5,1 km/h (1 Bft)
17.03.2014 07:42 8,9 C 7,8 C 90 % 1019,5 hPa 0,0 l/m 0 min 0 min 0,0 UV-I 28 W/m 5,1 km/h (1 Bft)
17.03.2014 07:44 8,9 C 7,8 C 90 % 1019,5 hPa 0,0 l/m 0 min 0 min 0,0 UV-I 28 W/m 10,3 km/h (2 Bft)
17.03.2014 07:46 8,9 C 7,8 C 90 % 1019,5 hPa 0,0 l/m 0 min 0 min 0,0 UV-I 30 W/m 10,3 km/h (2 Bft)
17.03.2014 07:48 8,9 C 7,8 C 90 % 1019,5 hPa 0,0 l/m 0 min 0 min 0,0 UV-I 32 W/m 15,4 km/h (3 Bft)
17.03.2014 07:50 9,0 C 7,8 C 90 % 1019,5 hPa 0,0 l/m 0 min 0 min 0,0 UV-I 33 W/m 7,7 km/h (2 Bft)
17.03.2014 07:52 9,0 C 7,8 C 90 % 1019,5 hPa 0,0 l/m 0 min 0 min 0,0 UV-I 39 W/m 18,0 km/h (3 Bft)
17.03.2014 07:54 9,0 C 7,8 C 90 % 1019,6 hPa 0,0 l/m 0 min 0 min 0,0 UV-I 37 W/m 10,3 km/h (2 Bft)
17.03.2014 07:56 9,0 C 8,3 C 90 % 1019,6 hPa 0,0 l/m 0 min 0 min 0,0 UV-I 39 W/m 5,1 km/h (1 Bft)
17.03.2014 07:58 9,0 C 8,3 C 90 % 1019,6 hPa 0,0 l/m 0 min 0 min 0,0 UV-I 40 W/m 10,3 km/h (2 Bft)
17.03.2014 08:00 9,1 C 8,3 C 90 % 1019,6 hPa 0,0 l/m 0 min 0 min 0,0 UV-I 40 W/m 10,3 km/h (2 Bft)
17.03.2014 08:02 9,1 C 8,3 C 90 % 1019,7 hPa 0,0 l/m 0 min 0 min 0,0 UV-I 39 W/m 18,0 km/h (3 Bft)
17.03.2014 08:06 9,1 C 8,3 C 90 % 1019,9 hPa 0,0 l/m 0 min 0 min 0,0 UV-I 40 W/m 12,9 km/h (3 Bft)
17.03.2014 08:08 9,1 C 8,3 C 90 % 1019,8 hPa 0,0 l/m 0 min 0 min 0,0 UV-I 42 W/m 10,3 km/h (2 Bft)
17.03.2014 08:10 9,1 C 8,3 C 90 % 1019,8 hPa 0,0 l/m 0 min 0 min 0,0 UV-I 44 W/m 15,4 km/h (3 Bft)
17.03.2014 08:12 9,1 C 8,3 C 90 % 1019,8 hPa 0,0 l/m 0 min 0 min 0,0 UV-I 49 W/m 10,3 km/h (2 Bft)
17.03.2014 08:14 9,1 C 8,3 C 90 % 1019,7 hPa 0,0 l/m 0 min 0 min 0,0 UV-I 53 W/m 12,9 km/h (3 Bft)
17.03.2014 08:16 9,1 C 8,3 C 90 % 1019,7 hPa 0,0 l/m 0 min 0 min 0,0 UV-I 54 W/m 10,3 km/h (2 Bft)
17.03.2014 08:18 9,1 C 8,3 C 90 % 1019,7 hPa 0,0 l/m 0 min 0 min 0,0 UV-I 60 W/m 10,3 km/h (2 Bft)
17.03.2014 08:20 9,2 C 8,3 C 90 % 1019,7 hPa 0,0 l/m 0 min 0 min 0,0 UV-I 62 W/m 12,9 km/h (3 Bft)
17.03.2014 08:22 9,2 C 8,3 C 90 % 1019,7 hPa 0,0 l/m 0 min 0 min 0,0 UV-I 60 W/m 15,4 km/h (3 Bft)
17.03.2014 08:24 9,2 C 8,3 C 90 % 1019,8 hPa 0,0 l/m 0 min 0 min 0,0 UV-I 56 W/m 12,9 km/h (3 Bft)
17.03.2014 08:26 9,2 C 8,3 C 90 % 1019,8 hPa 0,0 l/m 0 min 0 min 0,0 UV-I 58 W/m 2,6 km/h (1 Bft)
17.03.2014 08:28 9,2 C 8,3 C 90 % 1019,9 hPa 0,0 l/m 0 min 0 min 0,0 UV-I 58 W/m 2,6 km/h (1 Bft)
17.03.2014 08:30 9,2 C 8,3 C 90 % 1019,9 hPa 0,0 l/m 0 min 0 min 0,0 UV-I 60 W/m 7,7 km/h (2 Bft)
17.03.2014 08:32 9,2 C 8,3 C 90 % 1019,9 hPa 0,0 l/m 0 min 0 min 0,0 UV-I 62 W/m 10,3 km/h (2 Bft)
17.03.2014 08:34 9,3 C 8,3 C 90 % 1020,0 hPa 0,0 l/m 0 min 0 min 0,0 UV-I 70 W/m 18,0 km/h (3 Bft)
17.03.2014 08:36 9,3 C 8,9 C 90 % 1020,0 hPa 0,0 l/m 0 min 0 min 0,0 UV-I 83 W/m 12,9 km/h (3 Bft)
17.03.2014 08:38 9,3 C 8,9 C 90 % 1020,0 hPa 0,0 l/m 0 min 0 min 0,0 UV-I 84 W/m 5,1 km/h (1 Bft)
17.03.2014 08:40 9,3 C 8,9 C 90 % 1020,0 hPa 0,0 l/m 0 min 0 min 0,0 UV-I 88 W/m 2,6 km/h (1 Bft)
17.03.2014 08:42 9,4 C 8,9 C 90 % 1020,0 hPa 0,0 l/m 0 min 0 min 0,0 UV-I 95 W/m 12,9 km/h (3 Bft)
17.03.2014 08:44 9,4 C 8,9 C 90 % 1020,0 hPa 0,0 l/m 0 min 0 min 0,0 UV-I 93 W/m 15,4 km/h (3 Bft)
17.03.2014 08:46 9,4 C 8,9 C 90 % 1020,0 hPa 0,0 l/m 0 min 0 min 0,0 UV-I 93 W/m 2,6 km/h (1 Bft)
17.03.2014 08:48 9,5 C 8,9 C 90 % 1020,0 hPa 0,0 l/m 0 min 0 min 0,0 UV-I 88 W/m 15,4 km/h (3 Bft)
17.03.2014 08:50 9,5 C 8,9 C 90 % 1020,0 hPa 0,0 l/m 0 min 0 min 0,0 UV-I 88 W/m 7,7 km/h (2 Bft)
17.03.2014 08:52 9,5 C 8,9 C 89 % 1020,0 hPa 0,0 l/m 0 min 0 min 0,0 UV-I 91 W/m 12,9 km/h (3 Bft)
17.03.2014 08:54 9,6 C 8,9 C 89 % 1020,0 hPa 0,0 l/m 0 min 0 min 0,0 UV-I 84 W/m 7,7 km/h (2 Bft)
17.03.2014 08:56 9,6 C 8,9 C 89 % 1020,1 hPa 0,0 l/m 0 min 0 min 0,0 UV-I 83 W/m 7,7 km/h (2 Bft)
17.03.2014 08:58 9,6 C 8,9 C 89 % 1020,1 hPa 0,0 l/m 0 min 0 min 0,0 UV-I 83 W/m 12,9 km/h (3 Bft)
17.03.2014 09:00 9,6 C 8,9 C 89 % 1020,2 hPa 0,0 l/m 0 min 0 min 0,0 UV-I 91 W/m 12,9 km/h (3 Bft)
17.03.2014 09:02 9,6 C 8,9 C 89 % 1020,1 hPa 0,0 l/m 0 min 0 min 0,0 UV-I 91 W/m 10,3 km/h (2 Bft)
17.03.2014 09:06 9,7 C 8,9 C 89 % 1020,1 hPa 0,0 l/m 0 min 0 min 0,0 UV-I 98 W/m 10,3 km/h (2 Bft)
17.03.2014 09:08 9,7 C 9,4 C 89 % 1020,0 hPa 0,0 l/m 0 min 0 min 0,0 UV-I 102 W/m 7,7 km/h (2 Bft)
17.03.2014 09:10 9,7 C 9,4 C 89 % 1020,1 hPa 0,0 l/m 0 min 0 min 0,0 UV-I 111 W/m 10,3 km/h (2 Bft)
17.03.2014 09:12 9,7 C 9,4 C 89 % 1020,0 hPa 0,0 l/m 0 min 0 min 0,0 UV-I 116 W/m 10,3 km/h (2 Bft)
17.03.2014 09:14 9,7 C 9,4 C 89 % 1020,0 hPa 0,0 l/m 0 min 0 min 0,0 UV-I 114 W/m 12,9 km/h (3 Bft)
17.03.2014 09:16 9,8 C 9,4 C 89 % 1020,0 hPa 0,0 l/m 0 min 0 min 0,0 UV-I 113 W/m 15,4 km/h (3 Bft)
17.03.2014 09:18 9,8 C 9,4 C 88 % 1020,0 hPa 0,0 l/m 0 min 0 min 0,0 UV-I 105 W/m 10,3 km/h (2 Bft)
17.03.2014 09:20 9,8 C 9,4 C 88 % 1020,1 hPa 0,0 l/m 0 min 0 min 0,0 UV-I 111 W/m 5,1 km/h (1 Bft)
17.03.2014 09:22 9,9 C 9,4 C 88 % 1020,2 hPa 0,0 l/m 0 min 0 min 0,0 UV-I 113 W/m 12,9 km/h (3 Bft)
17.03.2014 09:24 9,9 C 9,4 C 88 % 1020,1 hPa 0,0 l/m 0 min 0 min 0,0 UV-I 123 W/m 5,1 km/h (1 Bft)
17.03.2014 09:26 9,9 C 9,4 C 88 % 1020,1 hPa 0,0 l/m 0 min 0 min 0,0 UV-I 127 W/m 10,3 km/h (2 Bft)
17.03.2014 09:28 10,0 C 9,4 C 88 % 1020,1 hPa 0,0 l/m 0 min 0 min 0,0 UV-I 132 W/m 7,7 km/h (2 Bft)
17.03.2014 09:30 9,9 C 9,4 C 88 % 1020,1 hPa 0,0 l/m 0 min 0 min 0,0 UV-I 137 W/m 20,6 km/h (4 Bft)
17.03.2014 09:32 10,0 C 9,4 C 88 % 1020,1 hPa 0,0 l/m 0 min 0 min 0,0 UV-I 139 W/m 10,3 km/h (2 Bft)
17.03.2014 09:34 10,0 C 9,4 C 88 % 1020,1 hPa 0,0 l/m 0 min 0 min 0,0 UV-I 144 W/m 12,9 km/h (3 Bft)
17.03.2014 09:36 10,1 C 10,0 C 88 % 1020,1 hPa 0,0 l/m 0 min 0 min 0,0 UV-I 149 W/m 12,9 km/h (3 Bft)
17.03.2014 09:38 10,1 C 10,0 C 88 % 1020,1 hPa 0,0 l/m 0 min 0 min 0,0 UV-I 156 W/m 10,3 km/h (2 Bft)
17.03.2014 09:40 10,2 C 10,0 C 88 % 1020,1 hPa 0,0 l/m 0 min 0 min 0,0 UV-I 165 W/m 18,0 km/h (3 Bft)
17.03.2014 09:42 10,2 C 10,0 C 88 % 1020,1 hPa 0,0 l/m 0 min 0 min 0,0 UV-I 169 W/m 15,4 km/h (3 Bft)
17.03.2014 09:44 10,2 C 10,0 C 88 % 1020,1 hPa 0,0 l/m 0 min 0 min 0,0 UV-I 165 W/m 12,9 km/h (3 Bft)
17.03.2014 09:46 10,3 C 10,0 C 87 % 1020,1 hPa 0,0 l/m 0 min 0 min 0,0 UV-I 171 W/m 10,3 km/h (2 Bft)
17.03.2014 09:48 10,3 C 10,0 C 87 % 1020,1 hPa 0,0 l/m 0 min 0 min 0,0 UV-I 160 W/m 7,7 km/h (2 Bft)
17.03.2014 09:50 10,4 C 10,6 C 87 % 1020,1 hPa 0,0 l/m 0 min 0 min 0,0 UV-I 174 W/m 10,3 km/h (2 Bft)
17.03.2014 09:52 10,4 C 10,0 C 87 % 1020,1 hPa 0,0 l/m 0 min 0 min 0,0 UV-I 172 W/m 15,4 km/h (3 Bft)
17.03.2014 09:54 10,4 C 10,0 C 87 % 1020,2 hPa 0,0 l/m 0 min 0 min 0,0 UV-I 167 W/m 18,0 km/h (3 Bft)
17.03.2014 09:56 10,4 C 10,0 C 86 % 1020,1 hPa 0,0 l/m 0 min 0 min 0,0 UV-I 171 W/m 7,7 km/h (2 Bft)
17.03.2014 09:58 10,4 C 10,0 C 86 % 1020,1 hPa 0,0 l/m 0 min 0 min 0,0 UV-I 171 W/m 7,7 km/h (2 Bft)
17.03.2014 10:00 10,4 C 10,0 C 86 % 1020,2 hPa 0,0 l/m 0 min 0 min 0,0 UV-I 169 W/m 10,3 km/h (2 Bft)
17.03.2014 10:02 10,5 C 10,6 C 86 % 1020,1 hPa 0,0 l/m 0 min 0 min 0,0 UV-I 167 W/m 7,7 km/h (2 Bft)
17.03.2014 10:06 10,6 C 10,6 C 86 % 1020,1 hPa 0,0 l/m 0 min 0 min 0,0 UV-I 197 W/m 12,9 km/h (3 Bft)
17.03.2014 10:08 10,6 C 10,6 C 86 % 1020,1 hPa 0,0 l/m 0 min 0 min 0,0 UV-I 202 W/m 7,7 km/h (2 Bft)
17.03.2014 10:10 10,7 C 10,6 C 86 % 1020,1 hPa 0,0 l/m 0 min 0 min 0,0 UV-I 221 W/m 10,3 km/h (2 Bft)
17.03.2014 10:12 10,8 C 11,1 C 86 % 1020,2 hPa 0,0 l/m 0 min 0 min 0,0 UV-I 213 W/m 7,7 km/h (2 Bft)
17.03.2014 10:14 10,8 C 11,1 C 85 % 1020,1 hPa 0,0 l/m 0 min 0 min 0,5 UV-I 223 W/m 10,3 km/h (2 Bft)
17.03.2014 10:16 10,9 C 11,1 C 85 % 1020,1 hPa 0,0 l/m 0 min 0 min 0,0 UV-I 216 W/m 10,3 km/h (2 Bft)
17.03.2014 10:18 10,9 C 11,1 C 85 % 1020,1 hPa 0,0 l/m 0 min 0 min 0,0 UV-I 199 W/m 12,9 km/h (3 Bft)
17.03.2014 10:20 11,0 C 11,1 C 85 % 1020,1 hPa 0,0 l/m 0 min 0 min 0,0 UV-I 200 W/m 10,3 km/h (2 Bft)
17.03.2014 10:22 10,9 C 11,1 C 84 % 1020,2 hPa 0,0 l/m 0 min 0 min 0,0 UV-I 213 W/m 12,9 km/h (3 Bft)
17.03.2014 10:24 11,0 C 11,1 C 84 % 1020,2 hPa 0,0 l/m 0 min 0 min 0,0 UV-I 214 W/m 15,4 km/h (3 Bft)
17.03.2014 10:26 10,9 C 11,1 C 84 % 1020,2 hPa 0,0 l/m 0 min 0 min 0,0 UV-I 200 W/m 10,3 km/h (2 Bft)
17.03.2014 10:28 11,1 C 11,1 C 84 % 1020,1 hPa 0,0 l/m 0 min 0 min 0,0 UV-I 185 W/m 7,7 km/h (2 Bft)
17.03.2014 10:30 11,1 C 11,1 C 84 % 1020,1 hPa 0,0 l/m 0 min 0 min 0,0 UV-I 197 W/m 10,3 km/h (2 Bft)
17.03.2014 10:32 11,1 C 11,1 C 84 % 1020,1 hPa 0,0 l/m 0 min 0 min 0,0 UV-I 178 W/m 5,1 km/h (1 Bft)
17.03.2014 10:34 11,1 C 11,1 C 84 % 1020,2 hPa 0,0 l/m 0 min 0 min 0,0 UV-I 181 W/m 7,7 km/h (2 Bft)
17.03.2014 10:36 11,1 C 11,1 C 84 % 1020,2 hPa 0,0 l/m 0 min 0 min 0,6 UV-I 214 W/m 10,3 km/h (2 Bft)
17.03.2014 10:38 11,1 C 11,1 C 84 % 1020,1 hPa 0,0 l/m 0 min 0 min 0,6 UV-I 214 W/m 12,9 km/h (3 Bft)
17.03.2014 10:40 11,1 C 11,1 C 84 % 1020,1 hPa 0,0 l/m 0 min 0 min 0,5 UV-I 216 W/m 7,7 km/h (2 Bft)
17.03.2014 10:42 11,2 C 11,1 C 84 % 1020,2 hPa 0,0 l/m 0 min 0 min 0,0 UV-I 197 W/m 18,0 km/h (3 Bft)
17.03.2014 10:44 11,2 C 11,1 C 83 % 1020,2 hPa 0,0 l/m 0 min 0 min 0,0 UV-I 178 W/m 18,0 km/h (3 Bft)
17.03.2014 10:46 11,2 C 11,1 C 83 % 1020,2 hPa 0,0 l/m 0 min 0 min 0,5 UV-I 207 W/m 7,7 km/h (2 Bft)
17.03.2014 10:48 11,2 C 11,1 C 83 % 1020,2 hPa 0,0 l/m 0 min 0 min 0,6 UV-I 218 W/m 12,9 km/h (3 Bft)
17.03.2014 10:50 11,2 C 11,1 C 83 % 1020,2 hPa 0,0 l/m 0 min 0 min 0,0 UV-I 195 W/m 12,9 km/h (3 Bft)
17.03.2014 10:52 11,2 C 11,1 C 83 % 1020,2 hPa 0,0 l/m 0 min 0 min 0,0 UV-I 185 W/m 12,9 km/h (3 Bft)
17.03.2014 10:54 11,2 C 11,1 C 83 % 1020,1 hPa 0,0 l/m 0 min 0 min 0,6 UV-I 209 W/m 12,9 km/h (3 Bft)
17.03.2014 10:56 11,2 C 11,1 C 84 % 1020,2 hPa 0,0 l/m 0 min 0 min 0,6 UV-I 220 W/m 18,0 km/h (3 Bft)
17.03.2014 10:58 11,2 C 11,1 C 83 % 1020,2 hPa 0,0 l/m 0 min 0 min 0,6 UV-I 209 W/m 18,0 km/h (3 Bft)
17.03.2014 11:00 11,2 C 11,1 C 83 % 1020,1 hPa 0,0 l/m 0 min 0 min 0,8 UV-I 229 W/m 10,3 km/h (2 Bft)
17.03.2014 11:02 11,2 C 11,1 C 83 % 1020,1 hPa 0,0 l/m 0 min 0 min 0,9 UV-I 251 W/m 18,0 km/h (3 Bft)
17.03.2014 11:06 11,3 C 11,1 C 82 % 1020,1 hPa 0,0 l/m 0 min 0 min 0,9 UV-I 279 W/m 25,7 km/h (4 Bft)
17.03.2014 11:08 11,3 C 11,7 C 82 % 1020,1 hPa 0,0 l/m 0 min 0 min 1,0 UV-I 295 W/m 10,3 km/h (2 Bft)
17.03.2014 11:10 11,3 C 11,7 C 82 % 1020,0 hPa 0,0 l/m 0 min 0 min 0,9 UV-I 264 W/m 10,3 km/h (2 Bft)
17.03.2014 11:12 11,4 C 11,7 C 82 % 1020,1 hPa 0,0 l/m 0 min 0 min 0,9 UV-I 253 W/m 12,9 km/h (3 Bft)
17.03.2014 11:14 11,4 C 11,7 C 82 % 1020,1 hPa 0,0 l/m 0 min 0 min 0,9 UV-I 274 W/m 15,4 km/h (3 Bft)
17.03.2014 11:16 11,5 C 11,7 C 82 % 1020,0 hPa 0,0 l/m 0 min 0 min 1,0 UV-I 271 W/m 15,4 km/h (3 Bft)
17.03.2014 11:18 11,6 C 11,7 C 82 % 1020,1 hPa 0,0 l/m 0 min 0 min 1,0 UV-I 265 W/m 12,9 km/h (3 Bft)
17.03.2014 11:20 11,7 C 11,7 C 82 % 1020,1 hPa 0,0 l/m 0 min 0 min 1,0 UV-I 260 W/m 18,0 km/h (3 Bft)
17.03.2014 11:22 11,6 C 11,7 C 81 % 1020,1 hPa 0,0 l/m 0 min 0 min 1,0 UV-I 243 W/m 15,4 km/h (3 Bft)
17.03.2014 11:24 11,7 C 12,2 C 81 % 1020,0 hPa 0,0 l/m 0 min 0 min 0,8 UV-I 232 W/m 7,7 km/h (2 Bft)
17.03.2014 11:26 11,7 C 11,7 C 81 % 1020,0 hPa 0,0 l/m 0 min 0 min 0,6 UV-I 197 W/m 12,9 km/h (3 Bft)
17.03.2014 11:28 11,7 C 11,7 C 81 % 1020,0 hPa 0,0 l/m 0 min 0 min 0,7 UV-I 214 W/m 7,7 km/h (2 Bft)
17.03.2014 11:30 11,8 C 11,7 C 81 % 1020,0 hPa 0,0 l/m 0 min 0 min 0,5 UV-I 206 W/m 5,1 km/h (1 Bft)
17.03.2014 11:32 11,7 C 11,7 C 80 % 1020,0 hPa 0,0 l/m 0 min 0 min 0,0 UV-I 149 W/m 15,4 km/h (3 Bft)
17.03.2014 11:34 11,7 C 11,7 C 80 % 1020,0 hPa 0,0 l/m 0 min 0 min 0,6 UV-I 172 W/m 15,4 km/h (3 Bft)
17.03.2014 11:36 11,6 C 11,7 C 80 % 1020,0 hPa 0,0 l/m 0 min 0 min 0,8 UV-I 192 W/m 23,2 km/h (4 Bft)
17.03.2014 11:38 11,6 C 11,7 C 80 % 1019,9 hPa 0,0 l/m 0 min 0 min 0,7 UV-I 171 W/m 20,6 km/h (4 Bft)
17.03.2014 11:40 11,6 C 11,1 C 81 % 1019,9 hPa 0,0 l/m 0 min 0 min 0,6 UV-I 165 W/m 7,7 km/h (2 Bft)
17.03.2014 11:42 11,6 C 11,1 C 81 % 1020,0 hPa 0,0 l/m 0 min 0 min 0,5 UV-I 149 W/m 5,1 km/h (1 Bft)
17.03.2014 11:44 11,6 C 11,1 C 81 % 1019,9 hPa 0,0 l/m 0 min 0 min 0,0 UV-I 141 W/m 7,7 km/h (2 Bft)
17.03.2014 11:46 11,6 C 11,1 C 81 % 1020,0 hPa 0,0 l/m 0 min 0 min 0,0 UV-I 137 W/m 10,3 km/h (2 Bft)
17.03.2014 11:48 11,5 C 11,1 C 81 % 1020,0 hPa 0,0 l/m 0 min 0 min 0,8 UV-I 200 W/m 15,4 km/h (3 Bft)
17.03.2014 11:50 11,5 C 11,7 C 81 % 1020,0 hPa 0,0 l/m 0 min 0 min 0,6 UV-I 195 W/m 10,3 km/h (2 Bft)
17.03.2014 11:52 11,6 C 11,7 C 81 % 1020,0 hPa 0,0 l/m 0 min 0 min 0,6 UV-I 172 W/m 2,6 km/h (1 Bft)
17.03.2014 11:54 11,6 C 11,7 C 81 % 1020,1 hPa 0,0 l/m 0 min 0 min 0,9 UV-I 213 W/m 12,9 km/h (3 Bft)
17.03.2014 11:56 11,6 C 11,7 C 81 % 1020,0 hPa 0,0 l/m 0 min 0 min 1,2 UV-I 299 W/m 7,7 km/h (2 Bft)
17.03.2014 11:58 11,7 C 11,7 C 80 % 1019,9 hPa 0,0 l/m 0 min 0 min 1,2 UV-I 301 W/m 10,3 km/h (2 Bft)
17.03.2014 12:00 11,8 C 12,2 C 80 % 1020,0 hPa 0,0 l/m 0 min 0 min 1,0 UV-I 264 W/m 7,7 km/h (2 Bft)
17.03.2014 12:02 11,9 C 12,2 C 80 % 1019,9 hPa 0,0 l/m 0 min 0 min 0,6 UV-I 202 W/m 15,4 km/h (3 Bft)
17.03.2014 12:06 11,9 C 11,7 C 79 % 1019,9 hPa 0,0 l/m 0 min 0 min 0,0 UV-I 141 W/m 20,6 km/h (4 Bft)
17.03.2014 12:08 11,8 C 11,7 C 79 % 1020,0 hPa 0,0 l/m 0 min 0 min 0,0 UV-I 123 W/m 18,0 km/h (3 Bft)
17.03.2014 12:10 11,7 C 11,1 C 79 % 1020,0 hPa 0,0 l/m 0 min 0 min 0,0 UV-I 111 W/m 10,3 km/h (2 Bft)
17.03.2014 12:12 11,6 C 11,1 C 78 % 1019,9 hPa 0,0 l/m 0 min 0 min 0,0 UV-I 93 W/m 18,0 km/h (3 Bft)
17.03.2014 12:14 11,5 C 10,6 C 79 % 1020,0 hPa 0,0 l/m 0 min 0 min 0,0 UV-I 74 W/m 18,0 km/h (3 Bft)
17.03.2014 12:16 11,4 C 10,6 C 79 % 1019,9 hPa 0,0 l/m 0 min 0 min 0,0 UV-I 67 W/m 12,9 km/h (3 Bft)
17.03.2014 12:18 11,3 C 10,6 C 79 % 1020,0 hPa 0,0 l/m 0 min 0 min 0,0 UV-I 81 W/m 2,6 km/h (1 Bft)
17.03.2014 12:20 11,3 C 10,6 C 79 % 1020,0 hPa 0,0 l/m 0 min 0 min 0,6 UV-I 163 W/m 18,0 km/h (3 Bft)
17.03.2014 12:22 11,3 C 11,1 C 80 % 1020,0 hPa 0,0 l/m 0 min 0 min 0,9 UV-I 200 W/m 20,6 km/h (4 Bft)
17.03.2014 12:24 11,4 C 11,1 C 80 % 1020,0 hPa 0,0 l/m 0 min 0 min 1,0 UV-I 251 W/m 15,4 km/h (3 Bft)
17.03.2014 12:26 11,5 C 11,7 C 79 % 1019,9 hPa 0,0 l/m 0 min 0 min 0,9 UV-I 220 W/m 18,0 km/h (3 Bft)
17.03.2014 12:28 11,6 C 11,7 C 79 % 1020,0 hPa 0,0 l/m 0 min 0 min 0,7 UV-I 193 W/m 7,7 km/h (2 Bft)
17.03.2014 12:30 11,6 C 11,7 C 79 % 1019,9 hPa 0,0 l/m 0 min 0 min 0,5 UV-I 169 W/m 12,9 km/h (3 Bft)
17.03.2014 12:32 11,6 C 11,7 C 79 % 1019,9 hPa 0,0 l/m 0 min 0 min 0,0 UV-I 148 W/m 18,0 km/h (3 Bft)
17.03.2014 12:34 11,6 C 11,1 C 78 % 1020,0 hPa 0,0 l/m 0 min 0 min 0,0 UV-I 125 W/m 15,4 km/h (3 Bft)
17.03.2014 12:36 11,6 C 11,1 C 78 % 1019,9 hPa 0,0 l/m 0 min 0 min 0,0 UV-I 113 W/m 12,9 km/h (3 Bft)
17.03.2014 12:38 11,5 C 11,1 C 78 % 1019,9 hPa 0,0 l/m 0 min 0 min 0,0 UV-I 118 W/m 10,3 km/h (2 Bft)
17.03.2014 12:40 11,6 C 11,1 C 79 % 1019,9 hPa 0,0 l/m 0 min 0 min 0,0 UV-I 116 W/m 18,0 km/h (3 Bft)
17.03.2014 12:42 11,5 C 11,1 C 79 % 1019,9 hPa 0,0 l/m 0 min 0 min 0,0 UV-I 107 W/m 15,4 km/h (3 Bft)
17.03.2014 12:44 11,5 C 10,6 C 79 % 1019,9 hPa 0,0 l/m 0 min 0 min 0,0 UV-I 97 W/m 12,9 km/h (3 Bft)
17.03.2014 12:46 11,5 C 10,6 C 79 % 1019,9 hPa 0,0 l/m 0 min 0 min 0,0 UV-I 104 W/m 10,3 km/h (2 Bft)
17.03.2014 12:48 11,5 C 11,1 C 79 % 1019,9 hPa 0,0 l/m 0 min 0 min 0,0 UV-I 148 W/m 10,3 km/h (2 Bft)
17.03.2014 12:50 11,6 C 11,1 C 79 % 1019,9 hPa 0,0 l/m 0 min 0 min 0,8 UV-I 207 W/m 12,9 km/h (3 Bft)
17.03.2014 12:52 11,6 C 11,7 C 79 % 1019,9 hPa 0,0 l/m 0 min 0 min 1,0 UV-I 229 W/m 7,7 km/h (2 Bft)
17.03.2014 12:54 11,7 C 11,7 C 79 % 1019,9 hPa 0,0 l/m 0 min 0 min 0,8 UV-I 206 W/m 7,7 km/h (2 Bft)
17.03.2014 12:56 11,8 C 11,7 C 79 % 1019,9 hPa 0,0 l/m 0 min 0 min 0,7 UV-I 193 W/m 18,0 km/h (3 Bft)
17.03.2014 12:58 11,9 C 11,7 C 78 % 1019,9 hPa 0,0 l/m 0 min 0 min 0,6 UV-I 186 W/m 15,4 km/h (3 Bft)
17.03.2014 13:00 11,9 C 11,7 C 77 % 1019,9 hPa 0,0 l/m 0 min 0 min 0,6 UV-I 186 W/m 23,2 km/h (4 Bft)
17.03.2014 13:02 11,9 C 11,7 C 77 % 1019,9 hPa 0,0 l/m 0 min 0 min 0,6 UV-I 186 W/m 15,4 km/h (3 Bft)
17.03.2014 13:06 11,9 C 11,7 C 78 % 1019,9 hPa 0,0 l/m 0 min 0 min 0,0 UV-I 142 W/m 15,4 km/h (3 Bft)
17.03.2014 13:08 11,9 C 11,7 C 78 % 1019,9 hPa 0,0 l/m 0 min 0 min 0,0 UV-I 120 W/m 5,1 km/h (1 Bft)
17.03.2014 13:10 11,9 C 11,7 C 78 % 1019,8 hPa 0,0 l/m 0 min 0 min 0,0 UV-I 116 W/m 15,4 km/h (3 Bft)
17.03.2014 13:12 11,8 C 11,1 C 78 % 1019,8 hPa 0,0 l/m 0 min 0 min 0,0 UV-I 113 W/m 18,0 km/h (3 Bft)
17.03.2014 13:14 11,8 C 11,1 C 78 % 1019,7 hPa 0,0 l/m 0 min 0 min 0,0 UV-I 90 W/m 5,1 km/h (1 Bft)
17.03.2014 13:16 11,8 C 11,1 C 78 % 1019,8 hPa 0,0 l/m 0 min 0 min 0,0 UV-I 91 W/m 10,3 km/h (2 Bft)
17.03.2014 13:18 11,8 C 11,1 C 78 % 1019,8 hPa 0,0 l/m 0 min 0 min 0,0 UV-I 97 W/m 7,7 km/h (2 Bft)
17.03.2014 13:20 11,7 C 11,1 C 78 % 1019,7 hPa 0,0 l/m 0 min 0 min 0,0 UV-I 104 W/m 10,3 km/h (2 Bft)
17.03.2014 13:22 11,7 C 11,1 C 78 % 1019,8 hPa 0,0 l/m 0 min 0 min 0,0 UV-I 135 W/m 7,7 km/h (2 Bft)
17.03.2014 13:24 11,8 C 11,1 C 78 % 1019,9 hPa 0,0 l/m 0 min 0 min 0,7 UV-I 190 W/m 7,7 km/h (2 Bft)
17.03.2014 13:26 11,8 C 11,7 C 78 % 1019,9 hPa 0,0 l/m 0 min 0 min 0,7 UV-I 206 W/m 18,0 km/h (3 Bft)
17.03.2014 13:28 11,9 C 11,7 C 78 % 1019,8 hPa 0,0 l/m 0 min 0 min 0,7 UV-I 204 W/m 10,3 km/h (2 Bft)
17.03.2014 13:30 12,0 C 11,7 C 78 % 1019,8 hPa 0,0 l/m 0 min 0 min 0,5 UV-I 181 W/m 7,7 km/h (2 Bft)
17.03.2014 13:32 12,1 C 11,7 C 77 % 1019,7 hPa 0,0 l/m 0 min 0 min 0,0 UV-I 163 W/m 5,1 km/h (1 Bft)
17.03.2014 13:34 12,1 C 11,7 C 76 % 1019,7 hPa 0,0 l/m 0 min 0 min 0,5 UV-I 163 W/m 12,9 km/h (3 Bft)
17.03.2014 13:36 12,2 C 12,2 C 76 % 1019,7 hPa 0,0 l/m 0 min 0 min 0,6 UV-I 178 W/m 5,1 km/h (1 Bft)
17.03.2014 13:38 12,2 C 12,2 C 75 % 1019,6 hPa 0,0 l/m 0 min 0 min 0,8 UV-I 214 W/m 20,6 km/h (4 Bft)
17.03.2014 13:40 12,3 C 12,2 C 75 % 1019,6 hPa 0,0 l/m 0 min 0 min 0,9 UV-I 251 W/m 12,9 km/h (3 Bft)
17.03.2014 13:42 12,3 C 12,2 C 74 % 1019,6 hPa 0,0 l/m 0 min 0 min 0,9 UV-I 246 W/m 10,3 km/h (2 Bft)
17.03.2014 13:44 12,4 C 12,8 C 73 % 1019,6 hPa 0,0 l/m 0 min 0 min 0,9 UV-I 251 W/m 10,3 km/h (2 Bft)
17.03.2014 13:46 12,6 C 12,8 C 73 % 1019,6 hPa 0,0 l/m 0 min 0 min 0,7 UV-I 207 W/m 15,4 km/h (3 Bft)
17.03.2014 13:48 12,6 C 12,8 C 72 % 1019,6 hPa 0,0 l/m 0 min 0 min 0,7 UV-I 213 W/m 7,7 km/h (2 Bft)
17.03.2014 13:50 12,7 C 12,8 C 72 % 1019,6 hPa 0,0 l/m 0 min 0 min 0,7 UV-I 206 W/m 12,9 km/h (3 Bft)
17.03.2014 13:52 12,7 C 12,8 C 72 % 1019,5 hPa 0,0 l/m 0 min 0 min 0,7 UV-I 200 W/m 15,4 km/h (3 Bft)
17.03.2014 13:54 12,7 C 12,8 C 72 % 1019,6 hPa 0,0 l/m 0 min 0 min 0,7 UV-I 197 W/m 12,9 km/h (3 Bft)
17.03.2014 13:56 12,7 C 12,2 C 72 % 1019,7 hPa 0,0 l/m 0 min 0 min 0,6 UV-I 197 W/m 12,9 km/h (3 Bft)
17.03.2014 13:58 12,6 C 12,2 C 72 % 1019,6 hPa 0,0 l/m 0 min 0 min 0,5 UV-I 172 W/m 15,4 km/h (3 Bft)
17.03.2014 14:00 12,6 C 12,2 C 72 % 1019,6 hPa 0,0 l/m 0 min 0 min 0,0 UV-I 160 W/m 12,9 km/h (3 Bft)
17.03.2014 14:02 12,5 C 12,2 C 72 % 1019,6 hPa 0,0 l/m 0 min 0 min 0,0 UV-I 146 W/m 12,9 km/h (3 Bft)
17.03.2014 14:06 12,4 C 12,2 C 73 % 1019,7 hPa 0,0 l/m 0 min 0 min 0,5 UV-I 172 W/m 15,4 km/h (3 Bft)
17.03.2014 14:08 12,5 C 12,2 C 73 % 1019,6 hPa 0,0 l/m 0 min 0 min 0,0 UV-I 174 W/m 7,7 km/h (2 Bft)
17.03.2014 14:10 12,6 C 12,2 C 74 % 1019,6 hPa 0,0 l/m 0 min 0 min 0,0 UV-I 130 W/m 7,7 km/h (2 Bft)
17.03.2014 14:12 12,6 C 12,2 C 73 % 1019,6 hPa 0,0 l/m 0 min 0 min 0,0 UV-I 102 W/m 7,7 km/h (2 Bft)
17.03.2014 14:14 12,6 C 11,7 C 73 % 1019,6 hPa 0,0 l/m 0 min 0 min 0,0 UV-I 93 W/m 10,3 km/h (2 Bft)
17.03.2014 14:16 12,5 C 11,7 C 73 % 1019,6 hPa 0,0 l/m 0 min 0 min 0,0 UV-I 98 W/m 12,9 km/h (3 Bft)
17.03.2014 14:18 12,4 C 11,7 C 73 % 1019,7 hPa 0,0 l/m 0 min 0 min 0,0 UV-I 97 W/m 10,3 km/h (2 Bft)
17.03.2014 14:20 12,3 C 11,7 C 73 % 1019,7 hPa 0,0 l/m 0 min 0 min 0,0 UV-I 81 W/m 7,7 km/h (2 Bft)
17.03.2014 14:22 12,3 C 11,7 C 73 % 1019,6 hPa 0,0 l/m 0 min 0 min 0,0 UV-I 67 W/m 7,7 km/h (2 Bft)
17.03.2014 14:24 12,3 C 11,7 C 73 % 1019,7 hPa 0,0 l/m 0 min 0 min 0,0 UV-I 62 W/m 5,1 km/h (1 Bft)
17.03.2014 14:26 12,2 C 11,1 C 74 % 1019,6 hPa 0,0 l/m 0 min 0 min 0,0 UV-I 63 W/m 2,6 km/h (1 Bft)
17.03.2014 14:28 12,2 C 11,1 C 74 % 1019,6 hPa 0,0 l/m 0 min 0 min 0,0 UV-I 84 W/m 5,1 km/h (1 Bft)
17.03.2014 14:30 12,2 C 11,1 C 74 % 1019,6 hPa 0,0 l/m 0 min 0 min 0,0 UV-I 91 W/m 10,3 km/h (2 Bft)
17.03.2014 14:32 12,2 C 11,7 C 73 % 1019,7 hPa 0,0 l/m 0 min 0 min 0,0 UV-I 120 W/m 5,1 km/h (1 Bft)
17.03.2014 14:34 12,2 C 11,7 C 73 % 1019,6 hPa 0,0 l/m 0 min 0 min 0,0 UV-I 167 W/m 7,7 km/h (2 Bft)
17.03.2014 14:36 12,3 C 11,7 C 74 % 1019,6 hPa 0,0 l/m 0 min 0 min 0,6 UV-I 211 W/m 12,9 km/h (3 Bft)
17.03.2014 14:38 12,3 C 12,2 C 73 % 1019,6 hPa 0,0 l/m 0 min 0 min 0,7 UV-I 223 W/m 12,9 km/h (3 Bft)
17.03.2014 14:40 12,4 C 12,2 C 72 % 1019,7 hPa 0,0 l/m 0 min 0 min 0,5 UV-I 192 W/m 7,7 km/h (2 Bft)
17.03.2014 14:42 12,5 C 12,2 C 72 % 1019,6 hPa 0,0 l/m 0 min 0 min 0,0 UV-I 167 W/m 10,3 km/h (2 Bft)
17.03.2014 14:44 12,6 C 12,2 C 72 % 1019,7 hPa 0,0 l/m 0 min 0 min 0,0 UV-I 137 W/m 0,0 km/h (0 Bft)
17.03.2014 14:46 12,6 C 12,2 C 71 % 1019,6 hPa 0,0 l/m 0 min 0 min 0,0 UV-I 104 W/m 10,3 km/h (2 Bft)
17.03.2014 14:48 12,6 C 12,2 C 71 % 1019,6 hPa 0,0 l/m 0 min 0 min 0,0 UV-I 88 W/m 10,3 km/h (2 Bft)
17.03.2014 14:50 12,6 C 11,7 C 71 % 1019,7 hPa 0,0 l/m 0 min 0 min 0,0 UV-I 76 W/m 18,0 km/h (3 Bft)
17.03.2014 14:52 12,4 C 11,7 C 71 % 1019,6 hPa 0,0 l/m 0 min 0 min 0,0 UV-I 79 W/m 18,0 km/h (3 Bft)
17.03.2014 14:54 12,4 C 11,7 C 71 % 1019,6 hPa 0,0 l/m 0 min 0 min 0,0 UV-I 97 W/m 18,0 km/h (3 Bft)
17.03.2014 14:56 12,3 C 11,7 C 71 % 1019,7 hPa 0,0 l/m 0 min 0 min 0,0 UV-I 146 W/m 12,9 km/h (3 Bft)
17.03.2014 14:58 12,3 C 11,7 C 71 % 1019,6 hPa 0,0 l/m 0 min 0 min 0,0 UV-I 179 W/m 12,9 km/h (3 Bft)
17.03.2014 15:00 12,4 C 12,2 C 71 % 1019,6 hPa 0,0 l/m 0 min 0 min 0,0 UV-I 183 W/m 10,3 km/h (2 Bft)
17.03.2014 15:02 12,6 C 12,2 C 71 % 1019,6 hPa 0,0 l/m 0 min 0 min 0,0 UV-I 163 W/m 15,4 km/h (3 Bft)
17.03.2014 15:06 12,7 C 12,2 C 71 % 1019,5 hPa 0,0 l/m 0 min 0 min 0,0 UV-I 155 W/m 12,9 km/h (3 Bft)
17.03.2014 15:08 12,7 C 12,2 C 70 % 1019,5 hPa 0,0 l/m 0 min 0 min 0,0 UV-I 155 W/m 20,6 km/h (4 Bft)
17.03.2014 15:10 12,6 C 12,2 C 69 % 1019,5 hPa 0,0 l/m 0 min 0 min 0,0 UV-I 149 W/m 15,4 km/h (3 Bft)
17.03.2014 15:12 12,6 C 12,2 C 70 % 1019,5 hPa 0,0 l/m 0 min 0 min 0,0 UV-I 142 W/m 10,3 km/h (2 Bft)
17.03.2014 15:14 12,6 C 12,2 C 69 % 1019,5 hPa 0,0 l/m 0 min 0 min 0,0 UV-I 111 W/m 10,3 km/h (2 Bft)
17.03.2014 15:16 12,6 C 12,2 C 69 % 1019,5 hPa 0,0 l/m 0 min 0 min 0,0 UV-I 93 W/m 5,1 km/h (1 Bft)
17.03.2014 15:18 12,6 C 11,7 C 69 % 1019,5 hPa 0,0 l/m 0 min 0 min 0,0 UV-I 104 W/m 18,0 km/h (3 Bft)
17.03.2014 15:20 12,6 C 11,7 C 69 % 1019,6 hPa 0,0 l/m 0 min 0 min 0,0 UV-I 134 W/m 5,1 km/h (1 Bft)
17.03.2014 15:22 12,5 C 11,7 C 69 % 1019,5 hPa 0,0 l/m 0 min 0 min 0,0 UV-I 132 W/m 15,4 km/h (3 Bft)
17.03.2014 15:24 12,5 C 11,7 C 70 % 1019,5 hPa 0,0 l/m 0 min 0 min 0,0 UV-I 128 W/m 7,7 km/h (2 Bft)
17.03.2014 15:26 12,5 C 12,2 C 70 % 1019,6 hPa 0,0 l/m 0 min 0 min 0,0 UV-I 158 W/m 15,4 km/h (3 Bft)
17.03.2014 15:28 12,6 C 12,2 C 69 % 1019,5 hPa 0,0 l/m 0 min 0 min 0,0 UV-I 163 W/m 7,7 km/h (2 Bft)
17.03.2014 15:30 12,6 C 12,2 C 70 % 1019,6 hPa 0,0 l/m 0 min 0 min 0,0 UV-I 169 W/m 7,7 km/h (2 Bft)
17.03.2014 15:32 12,7 C 12,2 C 69 % 1019,5 hPa 0,0 l/m 0 min 0 min 0,0 UV-I 176 W/m 18,0 km/h (3 Bft)
17.03.2014 15:34 12,7 C 12,2 C 69 % 1019,5 hPa 0,0 l/m 0 min 0 min 0,0 UV-I 174 W/m 23,2 km/h (4 Bft)
17.03.2014 15:36 12,7 C 12,2 C 69 % 1019,5 hPa 0,0 l/m 0 min 0 min 0,0 UV-I 162 W/m 15,4 km/h (3 Bft)
17.03.2014 15:38 12,7 C 12,2 C 69 % 1019,5 hPa 0,0 l/m 0 min 0 min 0,0 UV-I 153 W/m 10,3 km/h (2 Bft)
17.03.2014 15:40 12,7 C 12,2 C 69 % 1019,5 hPa 0,0 l/m 0 min 0 min 0,0 UV-I 144 W/m 18,0 km/h (3 Bft)
17.03.2014 15:42 12,7 C 12,2 C 69 % 1019,5 hPa 0,0 l/m 0 min 0 min 0,0 UV-I 142 W/m 18,0 km/h (3 Bft)
17.03.2014 15:44 12,7 C 12,2 C 69 % 1019,5 hPa 0,0 l/m 0 min 0 min 0,0 UV-I 118 W/m 7,7 km/h (2 Bft)
17.03.2014 15:46 12,7 C 12,2 C 69 % 1019,5 hPa 0,0 l/m 0 min 0 min 0,0 UV-I 118 W/m 12,9 km/h (3 Bft)
17.03.2014 15:48 12,7 C 12,2 C 69 % 1019,6 hPa 0,0 l/m 0 min 0 min 0,0 UV-I 121 W/m 5,1 km/h (1 Bft)
17.03.2014 15:50 12,7 C 12,2 C 68 % 1019,6 hPa 0,0 l/m 0 min 0 min 0,0 UV-I 144 W/m 7,7 km/h (2 Bft)
17.03.2014 15:52 12,7 C 12,2 C 69 % 1019,5 hPa 0,0 l/m 0 min 0 min 0,0 UV-I 160 W/m 10,3 km/h (2 Bft)
17.03.2014 15:54 12,7 C 12,2 C 68 % 1019,5 hPa 0,0 l/m 0 min 0 min 0,0 UV-I 158 W/m 10,3 km/h (2 Bft)
17.03.2014 15:56 12,7 C 12,2 C 69 % 1019,5 hPa 0,0 l/m 0 min 0 min 0,0 UV-I 142 W/m 7,7 km/h (2 Bft)
17.03.2014 15:58 12,7 C 12,2 C 68 % 1019,5 hPa 0,0 l/m 0 min 0 min 0,0 UV-I 162 W/m 7,7 km/h (2 Bft)
17.03.2014 16:00 12,7 C 12,2 C 68 % 1019,4 hPa 0,0 l/m 0 min 0 min 0,0 UV-I 144 W/m 23,2 km/h (4 Bft)
17.03.2014 16:02 12,7 C 12,2 C 68 % 1019,4 hPa 0,0 l/m 0 min 0 min 0,0 UV-I 156 W/m 10,3 km/h (2 Bft)
17.03.2014 16:06 12,8 C 12,2 C 68 % 1019,4 hPa 0,0 l/m 0 min 0 min 0,0 UV-I 134 W/m 12,9 km/h (3 Bft)
17.03.2014 16:08 12,7 C 12,2 C 68 % 1019,5 hPa 0,0 l/m 0 min 0 min 0,0 UV-I 130 W/m 10,3 km/h (2 Bft)
17.03.2014 16:10 12,7 C 12,2 C 68 % 1019,4 hPa 0,0 l/m 0 min 0 min 0,0 UV-I 128 W/m 7,7 km/h (2 Bft)
17.03.2014 16:12 12,7 C 12,2 C 68 % 1019,4 hPa 0,0 l/m 0 min 0 min 0,0 UV-I 121 W/m 0,0 km/h (0 Bft)
17.03.2014 16:14 12,7 C 12,2 C 68 % 1019,5 hPa 0,0 l/m 0 min 0 min 0,0 UV-I 135 W/m 7,7 km/h (2 Bft)
17.03.2014 16:16 12,7 C 12,2 C 68 % 1019,4 hPa 0,0 l/m 0 min 0 min 0,0 UV-I 121 W/m 10,3 km/h (2 Bft)
17.03.2014 16:18 12,7 C 12,2 C 68 % 1019,4 hPa 0,0 l/m 0 min 0 min 0,0 UV-I 109 W/m 2,6 km/h (1 Bft)
17.03.2014 16:20 12,7 C 12,2 C 68 % 1019,3 hPa 0,0 l/m 0 min 0 min 0,0 UV-I 121 W/m 7,7 km/h (2 Bft)
17.03.2014 16:22 12,7 C 12,2 C 69 % 1019,3 hPa 0,0 l/m 0 min 0 min 0,0 UV-I 118 W/m 10,3 km/h (2 Bft)
17.03.2014 16:24 12,7 C 11,7 C 68 % 1019,3 hPa 0,0 l/m 0 min 0 min 0,0 UV-I 104 W/m 7,7 km/h (2 Bft)
17.03.2014 16:26 12,6 C 11,7 C 68 % 1019,3 hPa 0,0 l/m 0 min 0 min 0,0 UV-I 86 W/m 5,1 km/h (1 Bft)
17.03.2014 16:28 12,6 C 11,7 C 68 % 1019,3 hPa 0,0 l/m 0 min 0 min 0,0 UV-I 95 W/m 0,0 km/h (0 Bft)
17.03.2014 16:30 12,6 C 11,7 C 68 % 1019,3 hPa 0,0 l/m 0 min 0 min 0,0 UV-I 102 W/m 12,9 km/h (3 Bft)
17.03.2014 16:32 12,5 C 11,7 C 69 % 1019,4 hPa 0,0 l/m 0 min 0 min 0,0 UV-I 104 W/m 7,7 km/h (2 Bft)
17.03.2014 16:34 12,5 C 11,7 C 68 % 1019,3 hPa 0,0 l/m 0 min 0 min 0,0 UV-I 100 W/m 7,7 km/h (2 Bft)
17.03.2014 16:36 12,5 C 11,7 C 68 % 1019,4 hPa 0,0 l/m 0 min 0 min 0,0 UV-I 84 W/m 7,7 km/h (2 Bft)
17.03.2014 16:38 12,5 C 11,7 C 68 % 1019,3 hPa 0,0 l/m 0 min 0 min 0,0 UV-I 83 W/m 15,4 km/h (3 Bft)
17.03.2014 16:40 12,5 C 11,7 C 68 % 1019,3 hPa 0,0 l/m 0 min 0 min 0,0 UV-I 81 W/m 10,3 km/h (2 Bft)
17.03.2014 16:42 12,4 C 11,7 C 68 % 1019,2 hPa 0,0 l/m 0 min 0 min 0,0 UV-I 81 W/m 10,3 km/h (2 Bft)
17.03.2014 16:44 12,4 C 11,7 C 68 % 1019,2 hPa 0,0 l/m 0 min 0 min 0,0 UV-I 74 W/m 0,0 km/h (0 Bft)
17.03.2014 16:46 12,4 C 11,7 C 69 % 1019,3 hPa 0,0 l/m 0 min 0 min 0,0 UV-I 72 W/m 2,6 km/h (1 Bft)
17.03.2014 16:48 12,4 C 11,7 C 69 % 1019,3 hPa 0,0 l/m 0 min 0 min 0,0 UV-I 83 W/m 10,3 km/h (2 Bft)
17.03.2014 16:50 12,3 C 11,7 C 69 % 1019,3 hPa 0,0 l/m 0 min 0 min 0,0 UV-I 77 W/m 15,4 km/h (3 Bft)
17.03.2014 16:52 12,3 C 11,7 C 69 % 1019,3 hPa 0,0 l/m 0 min 0 min 0,0 UV-I 81 W/m 10,3 km/h (2 Bft)
17.03.2014 16:54 12,3 C 11,7 C 69 % 1019,2 hPa 0,0 l/m 0 min 0 min 0,0 UV-I 72 W/m 5,1 km/h (1 Bft)
17.03.2014 16:56 12,3 C 11,7 C 69 % 1019,3 hPa 0,0 l/m 0 min 0 min 0,0 UV-I 77 W/m 2,6 km/h (1 Bft)
17.03.2014 16:58 12,3 C 11,7 C 69 % 1019,3 hPa 0,0 l/m 0 min 0 min 0,0 UV-I 81 W/m 10,3 km/h (2 Bft)
17.03.2014 17:00 12,3 C 11,7 C 69 % 1019,3 hPa 0,0 l/m 0 min 0 min 0,0 UV-I 62 W/m 10,3 km/h (2 Bft)
17.03.2014 17:02 12,3 C 11,1 C 69 % 1019,3 hPa 0,0 l/m 0 min 0 min 0,0 UV-I 54 W/m 12,9 km/h (3 Bft)
17.03.2014 17:06 12,2 C 11,1 C 69 % 1019,3 hPa 0,0 l/m 0 min 0 min 0,0 UV-I 42 W/m 12,9 km/h (3 Bft)
17.03.2014 17:08 12,2 C 11,1 C 69 % 1019,4 hPa 0,0 l/m 0 min 0 min 0,0 UV-I 39 W/m 2,6 km/h (1 Bft)
17.03.2014 17:10 12,2 C 11,1 C 70 % 1019,4 hPa 0,0 l/m 0 min 0 min 0,0 UV-I 39 W/m 10,3 km/h (2 Bft)
17.03.2014 17:12 12,1 C 11,1 C 70 % 1019,3 hPa 0,0 l/m 0 min 0 min 0,0 UV-I 40 W/m 12,9 km/h (3 Bft)
17.03.2014 17:14 12,1 C 11,1 C 70 % 1019,3 hPa 0,0 l/m 0 min 0 min 0,0 UV-I 40 W/m 2,6 km/h (1 Bft)
17.03.2014 17:16 12,0 C 10,6 C 70 % 1019,4 hPa 0,0 l/m 0 min 0 min 0,0 UV-I 44 W/m 15,4 km/h (3 Bft)
17.03.2014 17:18 11,9 C 10,6 C 71 % 1019,3 hPa 0,0 l/m 0 min 0 min 0,0 UV-I 44 W/m 12,9 km/h (3 Bft)
17.03.2014 17:20 11,9 C 10,6 C 71 % 1019,3 hPa 0,0 l/m 0 min 0 min 0,0 UV-I 42 W/m 18,0 km/h (3 Bft)
17.03.2014 17:22 11,9 C 10,6 C 72 % 1019,4 hPa 0,0 l/m 0 min 0 min 0,0 UV-I 40 W/m 7,7 km/h (2 Bft)
17.03.2014 17:24 11,8 C 10,6 C 72 % 1019,4 hPa 0,0 l/m 0 min 0 min 0,0 UV-I 46 W/m 10,3 km/h (2 Bft)
17.03.2014 17:26 11,8 C 10,6 C 72 % 1019,3 hPa 0,0 l/m 0 min 0 min 0,0 UV-I 44 W/m 2,6 km/h (1 Bft)
17.03.2014 17:28 11,8 C 10,6 C 72 % 1019,3 hPa 0,0 l/m 0 min 0 min 0,0 UV-I 51 W/m 15,4 km/h (3 Bft)
17.03.2014 17:30 11,7 C 10,6 C 72 % 1019,2 hPa 0,0 l/m 0 min 0 min 0,0 UV-I 44 W/m 15,4 km/h (3 Bft)
17.03.2014 17:32 11,7 C 10,6 C 72 % 1019,2 hPa 0,0 l/m 0 min 0 min 0,0 UV-I 44 W/m 12,9 km/h (3 Bft)
17.03.2014 17:34 11,7 C 10,6 C 72 % 1019,2 hPa 0,0 l/m 0 min 0 min 0,0 UV-I 40 W/m 10,3 km/h (2 Bft)
17.03.2014 17:36 11,7 C 10,6 C 71 % 1019,2 hPa 0,0 l/m 0 min 0 min 0,0 UV-I 32 W/m 12,9 km/h (3 Bft)
17.03.2014 17:38 11,6 C 10,6 C 71 % 1019,2 hPa 0,0 l/m 0 min 0 min 0,0 UV-I 33 W/m 15,4 km/h (3 Bft)
17.03.2014 17:40 11,6 C 10,6 C 70 % 1019,3 hPa 0,0 l/m 0 min 0 min 0,0 UV-I 39 W/m 18,0 km/h (3 Bft)
17.03.2014 17:42 11,6 C 10,6 C 71 % 1019,3 hPa 0,0 l/m 0 min 0 min 0,0 UV-I 32 W/m 5,1 km/h (1 Bft)
17.03.2014 17:44 11,6 C 10,6 C 71 % 1019,4 hPa 0,0 l/m 0 min 0 min 0,0 UV-I 33 W/m 12,9 km/h (3 Bft)
17.03.2014 17:46 11,5 C 10,6 C 71 % 1019,4 hPa 0,0 l/m 0 min 0 min 0,0 UV-I 35 W/m 20,6 km/h (4 Bft)
17.03.2014 17:48 11,5 C 10,6 C 71 % 1019,4 hPa 0,0 l/m 0 min 0 min 0,0 UV-I 33 W/m 10,3 km/h (2 Bft)
17.03.2014 17:50 11,5 C 10,0 C 71 % 1019,3 hPa 0,0 l/m 0 min 0 min 0,0 UV-I 28 W/m 2,6 km/h (1 Bft)
17.03.2014 17:52 11,5 C 10,0 C 71 % 1019,4 hPa 0,0 l/m 0 min 0 min 0,0 UV-I 28 W/m 7,7 km/h (2 Bft)
17.03.2014 17:54 11,4 C 10,0 C 71 % 1019,4 hPa 0,0 l/m 0 min 0 min 0,0 UV-I 30 W/m 7,7 km/h (2 Bft)
17.03.2014 17:56 11,4 C 10,0 C 70 % 1019,4 hPa 0,0 l/m 0 min 0 min 0,0 UV-I 30 W/m 5,1 km/h (1 Bft)
17.03.2014 17:58 11,4 C 10,0 C 71 % 1019,5 hPa 0,0 l/m 0 min 0 min 0,0 UV-I 30 W/m 10,3 km/h (2 Bft)
17.03.2014 18:00 11,4 C 10,0 C 71 % 1019,5 hPa 0,0 l/m 0 min 0 min 0,0 UV-I 26 W/m 12,9 km/h (3 Bft)
17.03.2014 18:02 11,4 C 10,0 C 71 % 1019,6 hPa 0,0 l/m 0 min 0 min 0,0 UV-I 23 W/m 10,3 km/h (2 Bft)
17.03.2014 18:06 11,3 C 10,0 C 70 % 1019,5 hPa 0,0 l/m 0 min 0 min 0,0 UV-I 18 W/m 10,3 km/h (2 Bft)
17.03.2014 18:08 11,3 C 10,0 C 70 % 1019,5 hPa 0,0 l/m 0 min 0 min 0,0 UV-I 16 W/m 18,0 km/h (3 Bft)
17.03.2014 18:10 11,3 C 10,0 C 69 % 1019,5 hPa 0,0 l/m 0 min 0 min 0,0 UV-I 12 W/m 18,0 km/h (3 Bft)
17.03.2014 18:12 11,3 C 10,0 C 69 % 1019,5 hPa 0,0 l/m 0 min 0 min 0,0 UV-I 12 W/m 7,7 km/h (2 Bft)
17.03.2014 18:14 11,3 C 10,0 C 70 % 1019,5 hPa 0,0 l/m 0 min 0 min 0,0 UV-I 11 W/m 0,0 km/h (0 Bft)
17.03.2014 18:16 11,3 C 10,0 C 69 % 1019,6 hPa 0,0 l/m 0 min 0 min 0,0 UV-I 11 W/m 0,0 km/h (0 Bft)
17.03.2014 18:18 11,2 C 10,0 C 70 % 1019,5 hPa 0,0 l/m 0 min 0 min 0,0 UV-I 11 W/m 0,0 km/h (0 Bft)
17.03.2014 18:20 11,2 C 10,0 C 70 % 1019,6 hPa 0,0 l/m 0 min 0 min 0,0 UV-I 11 W/m 18,0 km/h (3 Bft)
17.03.2014 18:22 11,2 C 10,0 C 70 % 1019,5 hPa 0,0 l/m 0 min 0 min 0,0 UV-I 9 W/m 0,0 km/h (0 Bft)
17.03.2014 18:24 11,2 C 10,0 C 70 % 1019,6 hPa 0,0 l/m 0 min 0 min 0,0 UV-I 9 W/m 10,3 km/h (2 Bft)
17.03.2014 18:26 11,2 C 10,0 C 70 % 1019,6 hPa 0,0 l/m 0 min 0 min 0,0 UV-I 11 W/m 15,4 km/h (3 Bft)
17.03.2014 18:28 11,2 C 10,0 C 69 % 1019,5 hPa 0,0 l/m 0 min 0 min 0,0 UV-I 9 W/m 7,7 km/h (2 Bft)
17.03.2014 18:30 11,2 C 10,0 C 69 % 1019,6 hPa 0,0 l/m 0 min 0 min 0,0 UV-I 7 W/m 10,3 km/h (2 Bft)
17.03.2014 18:32 11,1 C 10,0 C 69 % 1019,6 hPa 0,0 l/m 0 min 0 min 0,0 UV-I 7 W/m 12,9 km/h (3 Bft)
17.03.2014 18:34 11,1 C 10,0 C 69 % 1019,6 hPa 0,0 l/m 0 min 0 min 0,0 UV-I 5 W/m 0,0 km/h (0 Bft)
17.03.2014 18:36 11,1 C 10,0 C 69 % 1019,7 hPa 0,0 l/m 0 min 0 min 0,0 UV-I 0 W/m 0,0 km/h (0 Bft)
17.03.2014 18:38 11,1 C 9,4 C 70 % 1019,7 hPa 0,0 l/m 0 min 0 min 0,0 UV-I 0 W/m 0,0 km/h (0 Bft)
17.03.2014 18:40 11,0 C 9,4 C 70 % 1019,7 hPa 0,0 l/m 0 min 0 min 0,0 UV-I 0 W/m 7,7 km/h (2 Bft)
17.03.2014 18:42 11,0 C 9,4 C 70 % 1019,8 hPa 0,0 l/m 0 min 0 min 0,0 UV-I 0 W/m 0,0 km/h (0 Bft)
17.03.2014 18:44 11,0 C 9,4 C 70 % 1019,8 hPa 0,0 l/m 0 min 0 min 0,0 UV-I 0 W/m 0,0 km/h (0 Bft)
17.03.2014 18:46 10,9 C 9,4 C 70 % 1019,9 hPa 0,0 l/m 0 min 0 min 0,0 UV-I 0 W/m 0,0 km/h (0 Bft)
17.03.2014 18:48 10,9 C 9,4 C 70 % 1019,8 hPa 0,0 l/m 0 min 0 min 0,0 UV-I 0 W/m 5,1 km/h (1 Bft)
17.03.2014 18:50 10,9 C 9,4 C 70 % 1019,9 hPa 0,0 l/m 0 min 0 min 0,0 UV-I 0 W/m 12,9 km/h (3 Bft)
17.03.2014 18:52 10,9 C 9,4 C 70 % 1019,9 hPa 0,0 l/m 0 min 0 min 0,0 UV-I 0 W/m 15,4 km/h (3 Bft)
17.03.2014 18:54 10,9 C 9,4 C 70 % 1019,9 hPa 0,0 l/m 0 min 0 min 0,0 UV-I 0 W/m 0,0 km/h (0 Bft)
17.03.2014 18:56 10,9 C 9,4 C 71 % 1019,8 hPa 0,0 l/m 0 min 0 min 0,0 UV-I 0 W/m 0,0 km/h (0 Bft)
17.03.2014 18:58 10,9 C 9,4 C 71 % 1019,8 hPa 0,0 l/m 0 min 0 min 0,0 UV-I 0 W/m 5,1 km/h (1 Bft)
17.03.2014 19:00 10,8 C 9,4 C 71 % 1019,9 hPa 0,0 l/m 0 min 0 min 0,0 UV-I 0 W/m 2,6 km/h (1 Bft)
17.03.2014 19:02 10,8 C 9,4 C 70 % 1019,9 hPa 0,0 l/m 0 min 0 min 0,0 UV-I 0 W/m 10,3 km/h (2 Bft)
17.03.2014 19:06 10,8 C 9,4 C 70 % 1019,9 hPa 0,0 l/m 0 min 0 min 0,0 UV-I 0 W/m 12,9 km/h (3 Bft)
17.03.2014 19:08 10,8 C 9,4 C 70 % 1020,0 hPa 0,0 l/m 0 min 0 min 0,0 UV-I 0 W/m 7,7 km/h (2 Bft)
17.03.2014 19:10 10,8 C 9,4 C 70 % 1020,0 hPa 0,0 l/m 0 min 0 min 0,0 UV-I 0 W/m 10,3 km/h (2 Bft)
17.03.2014 19:12 10,8 C 9,4 C 71 % 1020,0 hPa 0,0 l/m 0 min 0 min 0,0 UV-I 0 W/m 5,1 km/h (1 Bft)
17.03.2014 19:14 10,8 C 9,4 C 71 % 1020,0 hPa 0,0 l/m 0 min 0 min 0,0 UV-I 0 W/m 5,1 km/h (1 Bft)
17.03.2014 19:16 10,7 C 9,4 C 71 % 1020,0 hPa 0,0 l/m 0 min 0 min 0,0 UV-I 0 W/m 2,6 km/h (1 Bft)
17.03.2014 19:18 10,7 C 9,4 C 71 % 1020,0 hPa 0,0 l/m 0 min 0 min 0,0 UV-I 0 W/m 12,9 km/h (3 Bft)
17.03.2014 19:20 10,7 C 9,4 C 70 % 1020,0 hPa 0,0 l/m 0 min 0 min 0,0 UV-I 0 W/m 7,7 km/h (2 Bft)
17.03.2014 19:22 10,7 C 9,4 C 71 % 1020,0 hPa 0,0 l/m 0 min 0 min 0,0 UV-I 0 W/m 7,7 km/h (2 Bft)
17.03.2014 19:24 10,7 C 9,4 C 71 % 1020,0 hPa 0,0 l/m 0 min 0 min 0,0 UV-I 0 W/m 10,3 km/h (2 Bft)
17.03.2014 19:26 10,7 C 9,4 C 71 % 1020,0 hPa 0,0 l/m 0 min 0 min 0,0 UV-I 0 W/m 2,6 km/h (1 Bft)
17.03.2014 19:28 10,6 C 9,4 C 71 % 1020,0 hPa 0,0 l/m 0 min 0 min 0,0 UV-I 0 W/m 10,3 km/h (2 Bft)
17.03.2014 19:30 10,6 C 9,4 C 71 % 1020,0 hPa 0,0 l/m 0 min 0 min 0,0 UV-I 0 W/m 5,1 km/h (1 Bft)
17.03.2014 19:32 10,6 C 9,4 C 71 % 1020,0 hPa 0,0 l/m 0 min 0 min 0,0 UV-I 0 W/m 10,3 km/h (2 Bft)
17.03.2014 19:34 10,6 C 9,4 C 71 % 1019,9 hPa 0,0 l/m 0 min 0 min 0,0 UV-I 0 W/m 2,6 km/h (1 Bft)
17.03.2014 19:36 10,6 C 8,9 C 71 % 1019,9 hPa 0,0 l/m 0 min 0 min 0,0 UV-I 0 W/m 0,0 km/h (0 Bft)
17.03.2014 19:38 10,6 C 8,9 C 71 % 1019,9 hPa 0,0 l/m 0 min 0 min 0,0 UV-I 0 W/m 0,0 km/h (0 Bft)
17.03.2014 19:40 10,5 C 8,9 C 71 % 1019,9 hPa 0,0 l/m 0 min 0 min 0,0 UV-I 0 W/m 0,0 km/h (0 Bft)
17.03.2014 19:42 10,5 C 8,9 C 71 % 1019,9 hPa 0,0 l/m 0 min 0 min 0,0 UV-I 0 W/m 10,3 km/h (2 Bft)
17.03.2014 19:44 10,4 C 8,9 C 71 % 1019,9 hPa 0,0 l/m 0 min 0 min 0,0 UV-I 0 W/m 0,0 km/h (0 Bft)
17.03.2014 19:46 10,4 C 8,9 C 71 % 1019,9 hPa 0,0 l/m 0 min 0 min 0,0 UV-I 0 W/m 10,3 km/h (2 Bft)
17.03.2014 19:48 10,4 C 8,9 C 71 % 1019,9 hPa 0,0 l/m 0 min 0 min 0,0 UV-I 0 W/m 2,6 km/h (1 Bft)
17.03.2014 19:50 10,4 C 8,9 C 71 % 1019,9 hPa 0,0 l/m 0 min 0 min 0,0 UV-I 0 W/m 0,0 km/h (0 Bft)
17.03.2014 19:52 10,4 C 8,9 C 71 % 1019,9 hPa 0,0 l/m 0 min 0 min 0,0 UV-I 0 W/m 5,1 km/h (1 Bft)
17.03.2014 19:54 10,4 C 8,9 C 71 % 1019,9 hPa 0,0 l/m 0 min 0 min 0,0 UV-I 0 W/m 5,1 km/h (1 Bft)
17.03.2014 19:56 10,4 C 8,9 C 71 % 1019,9 hPa 0,0 l/m 0 min 0 min 0,0 UV-I 0 W/m 0,0 km/h (0 Bft)
17.03.2014 19:58 10,4 C 8,9 C 72 % 1019,9 hPa 0,0 l/m 0 min 0 min 0,0 UV-I 0 W/m 5,1 km/h (1 Bft)
17.03.2014 20:00 10,3 C 8,9 C 72 % 1019,9 hPa 0,0 l/m 0 min 0 min 0,0 UV-I 0 W/m 5,1 km/h (1 Bft)
17.03.2014 20:02 10,3 C 8,9 C 72 % 1019,9 hPa 0,0 l/m 0 min 0 min 0,0 UV-I 0 W/m 0,0 km/h (0 Bft)
17.03.2014 20:06 10,3 C 8,9 C 72 % 1019,9 hPa 0,0 l/m 0 min 0 min 0,0 UV-I 0 W/m 0,0 km/h (0 Bft)
17.03.2014 20:08 10,3 C 8,9 C 72 % 1019,9 hPa 0,0 l/m 0 min 0 min 0,0 UV-I 0 W/m 10,3 km/h (2 Bft)
17.03.2014 20:10 10,2 C 8,9 C 72 % 1019,9 hPa 0,0 l/m 0 min 0 min 0,0 UV-I 0 W/m 0,0 km/h (0 Bft)
17.03.2014 20:12 10,2 C 8,9 C 73 % 1019,9 hPa 0,0 l/m 0 min 0 min 0,0 UV-I 0 W/m 0,0 km/h (0 Bft)
17.03.2014 20:14 10,2 C 8,9 C 73 % 1019,9 hPa 0,0 l/m 0 min 0 min 0,0 UV-I 0 W/m 5,1 km/h (1 Bft)
17.03.2014 20:16 10,1 C 8,9 C 73 % 1020,0 hPa 0,0 l/m 0 min 0 min 0,0 UV-I 0 W/m 5,1 km/h (1 Bft)
17.03.2014 20:18 10,1 C 8,9 C 73 % 1019,9 hPa 0,0 l/m 0 min 0 min 0,0 UV-I 0 W/m 7,7 km/h (2 Bft)
17.03.2014 20:20 10,1 C 8,9 C 73 % 1019,9 hPa 0,0 l/m 0 min 0 min 0,0 UV-I 0 W/m 0,0 km/h (0 Bft)
17.03.2014 20:22 10,1 C 8,9 C 73 % 1020,0 hPa 0,0 l/m 0 min 0 min 0,0 UV-I 0 W/m 0,0 km/h (0 Bft)
17.03.2014 20:24 10,0 C 8,9 C 74 % 1020,0 hPa 0,0 l/m 0 min 0 min 0,0 UV-I 0 W/m 0,0 km/h (0 Bft)
17.03.2014 20:26 10,0 C 8,3 C 73 % 1020,0 hPa 0,0 l/m 0 min 0 min 0,0 UV-I 0 W/m 2,6 km/h (1 Bft)
17.03.2014 20:28 10,0 C 8,3 C 74 % 1019,9 hPa 0,0 l/m 0 min 0 min 0,0 UV-I 0 W/m 0,0 km/h (0 Bft)
17.03.2014 20:30 9,9 C 8,3 C 74 % 1019,9 hPa 0,0 l/m 0 min 0 min 0,0 UV-I 0 W/m 0,0 km/h (0 Bft)
17.03.2014 20:32 9,9 C 8,3 C 74 % 1019,9 hPa 0,0 l/m 0 min 0 min 0,0 UV-I 0 W/m 0,0 km/h (0 Bft)
17.03.2014 20:34 9,9 C 8,3 C 74 % 1019,8 hPa 0,0 l/m 0 min 0 min 0,0 UV-I 0 W/m 0,0 km/h (0 Bft)
17.03.2014 20:36 9,9 C 8,3 C 73 % 1019,7 hPa 0,0 l/m 0 min 0 min 0,0 UV-I 0 W/m 12,9 km/h (3 Bft)
17.03.2014 20:38 9,9 C 8,3 C 73 % 1019,7 hPa 0,0 l/m 0 min 0 min 0,0 UV-I 0 W/m 0,0 km/h (0 Bft)
17.03.2014 20:40 9,9 C 8,3 C 73 % 1019,8 hPa 0,0 l/m 0 min 0 min 0,0 UV-I 0 W/m 0,0 km/h (0 Bft)
17.03.2014 20:42 9,9 C 8,3 C 74 % 1019,9 hPa 0,0 l/m 0 min 0 min 0,0 UV-I 0 W/m 0,0 km/h (0 Bft)
17.03.2014 20:44 9,9 C 8,3 C 74 % 1019,8 hPa 0,0 l/m 0 min 0 min 0,0 UV-I 0 W/m 0,0 km/h (0 Bft)
17.03.2014 20:46 9,8 C 8,3 C 74 % 1019,8 hPa 0,0 l/m 0 min 0 min 0,0 UV-I 0 W/m 0,0 km/h (0 Bft)
17.03.2014 20:48 9,8 C 8,3 C 74 % 1019,6 hPa 0,0 l/m 0 min 0 min 0,0 UV-I 0 W/m 0,0 km/h (0 Bft)
17.03.2014 20:50 9,8 C 8,3 C 74 % 1019,7 hPa 0,0 l/m 0 min 0 min 0,0 UV-I 0 W/m 0,0 km/h (0 Bft)
17.03.2014 20:52 9,8 C 8,3 C 74 % 1019,7 hPa 0,0 l/m 0 min 0 min 0,0 UV-I 0 W/m 0,0 km/h (0 Bft)
17.03.2014 20:54 9,8 C 8,3 C 74 % 1019,6 hPa 0,0 l/m 0 min 0 min 0,0 UV-I 0 W/m 0,0 km/h (0 Bft)
17.03.2014 20:56 9,7 C 8,3 C 74 % 1019,7 hPa 0,0 l/m 0 min 0 min 0,0 UV-I 0 W/m 2,6 km/h (1 Bft)
17.03.2014 20:58 9,7 C 8,3 C 75 % 1019,7 hPa 0,0 l/m 0 min 0 min 0,0 UV-I 0 W/m 0,0 km/h (0 Bft)
17.03.2014 21:00 9,7 C 8,3 C 75 % 1019,7 hPa 0,0 l/m 0 min 0 min 0,0 UV-I 0 W/m 2,6 km/h (1 Bft)
17.03.2014 21:02 9,7 C 8,3 C 74 % 1019,6 hPa 0,0 l/m 0 min 0 min 0,0 UV-I 0 W/m 0,0 km/h (0 Bft)
17.03.2014 21:06 9,7 C 8,3 C 74 % 1019,6 hPa 0,0 l/m 0 min 0 min 0,0 UV-I 0 W/m 0,0 km/h (0 Bft)
17.03.2014 21:08 9,6 C 8,3 C 75 % 1019,6 hPa 0,0 l/m 0 min 0 min 0,0 UV-I 0 W/m 5,1 km/h (1 Bft)
17.03.2014 21:10 9,6 C 7,8 C 75 % 1019,6 hPa 0,0 l/m 0 min 0 min 0,0 UV-I 0 W/m 0,0 km/h (0 Bft)
17.03.2014 21:12 9,6 C 7,8 C 75 % 1019,6 hPa 0,0 l/m 0 min 0 min 0,0 UV-I 0 W/m 0,0 km/h (0 Bft)
17.03.2014 21:14 9,5 C 7,8 C 75 % 1019,7 hPa 0,0 l/m 0 min 0 min 0,0 UV-I 0 W/m 0,0 km/h (0 Bft)
17.03.2014 21:16 9,5 C 7,8 C 75 % 1019,7 hPa 0,0 l/m 0 min 0 min 0,0 UV-I 0 W/m 0,0 km/h (0 Bft)
17.03.2014 21:18 9,4 C 7,8 C 76 % 1019,7 hPa 0,0 l/m 0 min 0 min 0,0 UV-I 0 W/m 0,0 km/h (0 Bft)
17.03.2014 21:20 9,4 C 7,8 C 76 % 1019,7 hPa 0,0 l/m 0 min 0 min 0,0 UV-I 0 W/m 0,0 km/h (0 Bft)
17.03.2014 21:22 9,3 C 7,8 C 76 % 1019,7 hPa 0,0 l/m 0 min 0 min 0,0 UV-I 0 W/m 0,0 km/h (0 Bft)
17.03.2014 21:24 9,3 C 7,8 C 76 % 1019,6 hPa 0,0 l/m 0 min 0 min 0,0 UV-I 0 W/m 0,0 km/h (0 Bft)
17.03.2014 21:26 9,3 C 7,8 C 76 % 1019,6 hPa 0,0 l/m 0 min 0 min 0,0 UV-I 0 W/m 0,0 km/h (0 Bft)
17.03.2014 21:28 9,3 C 7,8 C 76 % 1019,6 hPa 0,0 l/m 0 min 0 min 0,0 UV-I 0 W/m 0,0 km/h (0 Bft)
17.03.2014 21:30 9,3 C 7,8 C 76 % 1019,6 hPa 0,0 l/m 0 min 0 min 0,0 UV-I 0 W/m 0,0 km/h (0 Bft)
17.03.2014 21:32 9,3 C 7,8 C 76 % 1019,7 hPa 0,0 l/m 0 min 0 min 0,0 UV-I 0 W/m 0,0 km/h (0 Bft)
17.03.2014 21:34 9,2 C 7,8 C 77 % 1019,7 hPa 0,0 l/m 0 min 0 min 0,0 UV-I 0 W/m 0,0 km/h (0 Bft)
17.03.2014 21:36 9,2 C 7,8 C 77 % 1019,6 hPa 0,0 l/m 0 min 0 min 0,0 UV-I 0 W/m 0,0 km/h (0 Bft)
17.03.2014 21:38 9,2 C 7,8 C 77 % 1019,6 hPa 0,0 l/m 0 min 0 min 0,0 UV-I 0 W/m 0,0 km/h (0 Bft)
17.03.2014 21:40 9,2 C 7,8 C 77 % 1019,6 hPa 0,0 l/m 0 min 0 min 0,0 UV-I 0 W/m 0,0 km/h (0 Bft)
17.03.2014 21:42 9,2 C 7,8 C 77 % 1019,6 hPa 0,0 l/m 0 min 0 min 0,0 UV-I 0 W/m 0,0 km/h (0 Bft)
17.03.2014 21:44 9,2 C 7,8 C 77 % 1019,6 hPa 0,0 l/m 0 min 0 min 0,0 UV-I 0 W/m 0,0 km/h (0 Bft)
17.03.2014 21:46 9,1 C 7,2 C 77 % 1019,5 hPa 0,0 l/m 0 min 0 min 0,0 UV-I 0 W/m 0,0 km/h (0 Bft)
17.03.2014 21:48 9,1 C 7,2 C 77 % 1019,5 hPa 0,0 l/m 0 min 0 min 0,0 UV-I 0 W/m 0,0 km/h (0 Bft)
17.03.2014 21:50 9,1 C 7,2 C 77 % 1019,5 hPa 0,0 l/m 0 min 0 min 0,0 UV-I 0 W/m 0,0 km/h (0 Bft)
17.03.2014 21:52 9,1 C 7,2 C 77 % 1019,6 hPa 0,0 l/m 0 min 0 min 0,0 UV-I 0 W/m 0,0 km/h (0 Bft)
17.03.2014 21:54 9,0 C 7,2 C 77 % 1019,5 hPa 0,0 l/m 0 min 0 min 0,0 UV-I 0 W/m 0,0 km/h (0 Bft)
17.03.2014 21:56 9,0 C 7,2 C 77 % 1019,5 hPa 0,0 l/m 0 min 0 min 0,0 UV-I 0 W/m 0,0 km/h (0 Bft)
17.03.2014 21:58 9,0 C 7,2 C 77 % 1019,5 hPa 0,0 l/m 0 min 0 min 0,0 UV-I 0 W/m 0,0 km/h (0 Bft)
17.03.2014 22:00 8,9 C 7,2 C 77 % 1019,4 hPa 0,0 l/m 0 min 0 min 0,0 UV-I 0 W/m 0,0 km/h (0 Bft)
17.03.2014 22:02 8,9 C 7,2 C 77 % 1019,5 hPa 0,0 l/m 0 min 0 min 0,0 UV-I 0 W/m 0,0 km/h (0 Bft)
17.03.2014 22:06 8,8 C 6,7 C 78 % 1019,5 hPa 0,0 l/m 0 min 0 min 0,0 UV-I 0 W/m 0,0 km/h (0 Bft)
17.03.2014 22:08 8,8 C 6,7 C 78 % 1019,4 hPa 0,0 l/m 0 min 0 min 0,0 UV-I 0 W/m 0,0 km/h (0 Bft)
17.03.2014 22:10 8,7 C 6,7 C 78 % 1019,5 hPa 0,0 l/m 0 min 0 min 0,0 UV-I 0 W/m 0,0 km/h (0 Bft)
17.03.2014 22:12 8,7 C 6,7 C 78 % 1019,5 hPa 0,0 l/m 0 min 0 min 0,0 UV-I 0 W/m 0,0 km/h (0 Bft)
17.03.2014 22:14 8,7 C 6,7 C 78 % 1019,5 hPa 0,0 l/m 0 min 0 min 0,0 UV-I 0 W/m 0,0 km/h (0 Bft)
17.03.2014 22:16 8,6 C 6,7 C 79 % 1019,5 hPa 0,0 l/m 0 min 0 min 0,0 UV-I 0 W/m 0,0 km/h (0 Bft)
17.03.2014 22:18 8,6 C 6,7 C 79 % 1019,5 hPa 0,0 l/m 0 min 0 min 0,0 UV-I 0 W/m 0,0 km/h (0 Bft)
17.03.2014 22:20 8,5 C 6,1 C 79 % 1019,5 hPa 0,0 l/m 0 min 0 min 0,0 UV-I 0 W/m 0,0 km/h (0 Bft)
17.03.2014 22:22 8,5 C 6,1 C 79 % 1019,5 hPa 0,0 l/m 0 min 0 min 0,0 UV-I 0 W/m 0,0 km/h (0 Bft)
17.03.2014 22:24 8,4 C 6,1 C 79 % 1019,6 hPa 0,0 l/m 0 min 0 min 0,0 UV-I 0 W/m 0,0 km/h (0 Bft)
17.03.2014 22:26 8,4 C 6,1 C 79 % 1019,6 hPa 0,0 l/m 0 min 0 min 0,0 UV-I 0 W/m 0,0 km/h (0 Bft)
17.03.2014 22:28 8,3 C 6,1 C 79 % 1019,5 hPa 0,0 l/m 0 min 0 min 0,0 UV-I 0 W/m 0,0 km/h (0 Bft)
17.03.2014 22:30 8,3 C 6,1 C 80 % 1019,5 hPa 0,0 l/m 0 min 0 min 0,0 UV-I 0 W/m 0,0 km/h (0 Bft)
17.03.2014 22:32 8,2 C 6,1 C 80 % 1019,4 hPa 0,0 l/m 0 min 0 min 0,0 UV-I 0 W/m 0,0 km/h (0 Bft)
17.03.2014 22:34 8,2 C 6,1 C 80 % 1019,5 hPa 0,0 l/m 0 min 0 min 0,0 UV-I 0 W/m 0,0 km/h (0 Bft)
17.03.2014 22:36 8,1 C 6,1 C 84 % 1019,5 hPa 0,0 l/m 0 min 0 min 0,0 UV-I 0 W/m 0,0 km/h (0 Bft)
17.03.2014 22:38 8,1 C 5,6 C 80 % 1019,4 hPa 0,0 l/m 0 min 0 min 0,0 UV-I 0 W/m 0,0 km/h (0 Bft)
17.03.2014 22:40 8,1 C 5,6 C 80 % 1019,4 hPa 0,0 l/m 0 min 0 min 0,0 UV-I 0 W/m 0,0 km/h (0 Bft)
17.03.2014 22:42 8,1 C 5,6 C 80 % 1019,4 hPa 0,0 l/m 0 min 0 min 0,0 UV-I 0 W/m 0,0 km/h (0 Bft)
17.03.2014 22:44 8,0 C 5,6 C 81 % 1019,4 hPa 0,0 l/m 0 min 0 min 0,0 UV-I 0 W/m 0,0 km/h (0 Bft)
17.03.2014 22:46 8,0 C 5,6 C 81 % 1019,4 hPa 0,0 l/m 0 min 0 min 0,0 UV-I 0 W/m 0,0 km/h (0 Bft)
17.03.2014 22:48 7,9 C 5,6 C 81 % 1019,4 hPa 0,0 l/m 0 min 0 min 0,0 UV-I 0 W/m 0,0 km/h (0 Bft)
17.03.2014 22:50 7,9 C 5,6 C 81 % 1019,4 hPa 0,0 l/m 0 min 0 min 0,0 UV-I 0 W/m 0,0 km/h (0 Bft)
17.03.2014 22:52 7,8 C 5,6 C 81 % 1019,3 hPa 0,0 l/m 0 min 0 min 0,0 UV-I 0 W/m 0,0 km/h (0 Bft)
17.03.2014 22:54 7,8 C 5,6 C 81 % 1019,3 hPa 0,0 l/m 0 min 0 min 0,0 UV-I 0 W/m 0,0 km/h (0 Bft)
17.03.2014 22:56 7,7 C 5,6 C 81 % 1019,3 hPa 0,0 l/m 0 min 0 min 0,0 UV-I 0 W/m 0,0 km/h (0 Bft)
17.03.2014 22:58 7,7 C 5,6 C 82 % 1019,2 hPa 0,0 l/m 0 min 0 min 0,0 UV-I 0 W/m 0,0 km/h (0 Bft)
17.03.2014 23:00 7,6 C 5,6 C 82 % 1019,3 hPa 0,0 l/m 0 min 0 min 0,0 UV-I 0 W/m 0,0 km/h (0 Bft)
17.03.2014 23:02 7,6 C 5,6 C 82 % 1019,3 hPa 0,0 l/m 0 min 0 min 0,0 UV-I 0 W/m 0,0 km/h (0 Bft)
17.03.2014 23:06 7,4 C 5,6 C 82 % 1019,4 hPa 0,0 l/m 0 min 0 min 0,0 UV-I 0 W/m 0,0 km/h (0 Bft)
17.03.2014 23:08 7,4 C 5,0 C 83 % 1019,4 hPa 0,0 l/m 0 min 0 min 0,0 UV-I 0 W/m 0,0 km/h (0 Bft)
17.03.2014 23:10 7,3 C 5,0 C 83 % 1019,4 hPa 0,0 l/m 0 min 0 min 0,0 UV-I 0 W/m 0,0 km/h (0 Bft)
17.03.2014 23:12 7,3 C 5,0 C 83 % 1019,3 hPa 0,0 l/m 0 min 0 min 0,0 UV-I 0 W/m 0,0 km/h (0 Bft)
17.03.2014 23:14 7,3 C 5,0 C 84 % 1019,3 hPa 0,0 l/m 0 min 0 min 0,0 UV-I 0 W/m 0,0 km/h (0 Bft)
17.03.2014 23:16 7,2 C 5,0 C 84 % 1019,3 hPa 0,0 l/m 0 min 0 min 0,0 UV-I 0 W/m 0,0 km/h (0 Bft)
17.03.2014 23:18 7,2 C 5,0 C 84 % 1019,2 hPa 0,0 l/m 0 min 0 min 0,0 UV-I 0 W/m 0,0 km/h (0 Bft)
17.03.2014 23:20 7,2 C 5,0 C 84 % 1019,2 hPa 0,0 l/m 0 min 0 min 0,0 UV-I 0 W/m 0,0 km/h (0 Bft)
17.03.2014 23:22 7,2 C 5,0 C 84 % 1019,2 hPa 0,0 l/m 0 min 0 min 0,0 UV-I 0 W/m 0,0 km/h (0 Bft)
17.03.2014 23:24 7,1 C 5,0 C 84 % 1019,2 hPa 0,0 l/m 0 min 0 min 0,0 UV-I 0 W/m 0,0 km/h (0 Bft)
17.03.2014 23:26 7,1 C 5,6 C 84 % 1019,2 hPa 0,0 l/m 0 min 0 min 0,0 UV-I 0 W/m 0,0 km/h (0 Bft)
17.03.2014 23:28 7,1 C 5,6 C 84 % 1019,2 hPa 0,0 l/m 0 min 0 min 0,0 UV-I 0 W/m 0,0 km/h (0 Bft)
17.03.2014 23:30 7,1 C 5,6 C 85 % 1019,2 hPa 0,0 l/m 0 min 0 min 0,0 UV-I 0 W/m 0,0 km/h (0 Bft)
17.03.2014 23:32 7,1 C 5,6 C 85 % 1019,2 hPa 0,0 l/m 0 min 0 min 0,0 UV-I 0 W/m 0,0 km/h (0 Bft)
17.03.2014 23:34 7,2 C 5,6 C 85 % 1019,1 hPa 0,0 l/m 0 min 0 min 0,0 UV-I 0 W/m 0,0 km/h (0 Bft)
17.03.2014 23:36 7,2 C 5,6 C 84 % 1019,2 hPa 0,0 l/m 0 min 0 min 0,0 UV-I 0 W/m 0,0 km/h (0 Bft)
17.03.2014 23:38 7,2 C 5,6 C 84 % 1019,1 hPa 0,0 l/m 0 min 0 min 0,0 UV-I 0 W/m 0,0 km/h (0 Bft)
17.03.2014 23:40 7,2 C 5,6 C 84 % 1019,1 hPa 0,0 l/m 0 min 0 min 0,0 UV-I 0 W/m 0,0 km/h (0 Bft)
17.03.2014 23:42 7,2 C 5,6 C 84 % 1019,1 hPa 0,0 l/m 0 min 0 min 0,0 UV-I 0 W/m 0,0 km/h (0 Bft)
17.03.2014 23:44 7,3 C 5,6 C 84 % 1019,1 hPa 0,0 l/m 0 min 0 min 0,0 UV-I 0 W/m 0,0 km/h (0 Bft)
17.03.2014 23:46 7,3 C 5,6 C 84 % 1019,1 hPa 0,0 l/m 0 min 0 min 0,0 UV-I 0 W/m 0,0 km/h (0 Bft)
17.03.2014 23:48 7,3 C 5,6 C 85 % 1019,1 hPa 0,0 l/m 0 min 0 min 0,0 UV-I 0 W/m 0,0 km/h (0 Bft)
17.03.2014 23:50 7,3 C 5,6 C 85 % 1019,2 hPa 0,0 l/m 0 min 0 min 0,0 UV-I 0 W/m 0,0 km/h (0 Bft)
17.03.2014 23:52 7,4 C 6,1 C 84 % 1019,1 hPa 0,0 l/m 0 min 0 min 0,0 UV-I 0 W/m 0,0 km/h (0 Bft)
17.03.2014 23:54 7,4 C 6,1 C 85 % 1019,1 hPa 0,0 l/m 0 min 0 min 0,0 UV-I 0 W/m 0,0 km/h (0 Bft)
17.03.2014 23:56 7,5 C 6,1 C 85 % 1019,1 hPa 0,0 l/m 0 min 0 min 0,0 UV-I 0 W/m 0,0 km/h (0 Bft)
17.03.2014 23:58 7,6 C 6,1 C 85 % 1019,1 hPa 0,0 l/m 0 min 0 min 0,0 UV-I 0 W/m 0,0 km/h (0 Bft)
_ Min-Zeit 23:24 23:08 15:50 03:56 - - - - - 00:00
Minimum _ 7,1 C 5,0 C 68 % 1018,5 hPa - - - - - 0,0 km/h (0 Bft)
_ Max-Zeit 16:00 13:44 06:32 09:00 00:00 00:00 00:00 11:56 11:58 11:06
Maximum _ 12,8 C 12,8 C 91 % 1020,2 hPa 0,0 l/m 0 min 0 min 1,2 UV-I 301 W/m 25,7 km/h
S-SW (4 Bft)
Durchschnitt _ 9,9 C 8,9 C 81 % 1019,5 hPa #0,0 l/m #0 min. #0 min. 0,7 UV-I 119 W/m 6,9 km/h (2 Bft)
© 2014 W. Hausmann